Observation data for South Plains 3ENE on 11/09/2019      Previous  Date       Current Mesonet Observations  Soil Data  Daily Summary Page  Observations in Plain Language
KSP2 090600Z 25010KT 06/05 A3027 RMK A01 T00560052  RH  098%=      5-min Rain = 0
KSP2 090601Z 25009KT 06/05 A3027 RMK A01 T00560053  RH  098%=      5-min Rain = 0
KSP2 090602Z 25009KT 06/05 A3027 RMK A01 T00560053  RH  098%=      5-min Rain = 0
KSP2 090603Z 25008KT 06/05 A3027 RMK A01 T00550052  RH  098%=      5-min Rain = 0
KSP2 090604Z 25009KT 06/05 A3027 RMK A01 T00550052  RH  098%=      5-min Rain = 0
KSP2 090605Z 25008KT 06/05 A3027 RMK A01 T00550052  RH  098%=      5-min Rain = 0
KSP2 090606Z 25008KT 06/05 A3027 RMK A01 T00550052  RH  098%=      5-min Rain = 0
KSP2 090607Z 25008KT 06/05 A3027 RMK A01 T00550052  RH  098%=      5-min Rain = 0
KSP2 090608Z 25008KT 06/05 A3027 RMK A01 T00560053  RH  098%=      5-min Rain = 0
KSP2 090609Z 25009KT 06/05 A3027 RMK A01 T00560054  RH  098%=      5-min Rain = 0
KSP2 090610Z 26010KT 06/05 A3027 RMK A01 T00570054  RH  098%=      5-min Rain = 0
KSP2 090611Z 25009KT 06/06 A3027 RMK A01 T00580055  RH  098%=      5-min Rain = 0
KSP2 090612Z 25009KT 06/06 A3027 RMK A01 T00590056  RH  098%=      5-min Rain = 0
KSP2 090613Z 25009KT 06/06 A3027 RMK A01 T00590056  RH  098%=      5-min Rain = 0
KSP2 090614Z 26009KT 06/06 A3027 RMK A01 T00590056  RH  098%=      5-min Rain = 0
KSP2 090615Z 26009KT 06/06 A3027 RMK A01 T00590055  RH  098%=      5-min Rain = 0
KSP2 090616Z 25009KT 06/06 A3027 RMK A01 T00590055  RH  098%=      5-min Rain = 0
KSP2 090617Z 26007KT 06/05 A3027 RMK A01 T00580054  RH  097%=      5-min Rain = 0
KSP2 090618Z 26010KT 06/05 A3027 RMK A01 T00580054  RH  097%=      5-min Rain = 0
KSP2 090619Z 26008KT 06/05 A3027 RMK A01 T00580054  RH  097%=      5-min Rain = 0
KSP2 090620Z 26009KT 06/05 A3027 RMK A01 T00570053  RH  097%=      5-min Rain = 0
KSP2 090621Z 26009KT 06/05 A3027 RMK A01 T00570053  RH  097%=      5-min Rain = 0
KSP2 090622Z 26008KT 06/05 A3027 RMK A01 T00560052  RH  097%=      5-min Rain = 0
KSP2 090623Z 26009KT 06/05 A3027 RMK A01 T00560052  RH  097%=      5-min Rain = 0
KSP2 090624Z 26009KT 06/05 A3027 RMK A01 T00550051  RH  097%=      5-min Rain = 0
KSP2 090625Z 26008KT 06/05 A3027 RMK A01 T00550050  RH  097%=      5-min Rain = 0
KSP2 090626Z 26008KT 05/05 A3027 RMK A01 T00540050  RH  097%=      5-min Rain = 0
KSP2 090627Z 26008KT 05/05 A3026 RMK A01 T00540049  RH  097%=      5-min Rain = 0
KSP2 090628Z 26008KT 05/05 A3026 RMK A01 T00530049  RH  097%=      5-min Rain = 0
KSP2 090629Z 26009KT 05/05 A3026 RMK A01 T00530049  RH  097%=      5-min Rain = 0
KSP2 090630Z 25010KT 05/05 A3026 RMK A01 T00530049  RH  097%=      5-min Rain = 0
KSP2 090631Z 25009KT 05/05 A3026 RMK A01 T00530049  RH  098%=      5-min Rain = 0
KSP2 090632Z 25009KT 05/05 A3026 RMK A01 T00530049  RH  098%=      5-min Rain = 0
KSP2 090633Z 25009KT 05/05 A3026 RMK A01 T00530049  RH  098%=      5-min Rain = 0
KSP2 090634Z 25009KT 05/05 A3026 RMK A01 T00520049  RH  098%=      5-min Rain = 0
KSP2 090635Z 25008KT 05/05 A3026 RMK A01 T00530049  RH  098%=      5-min Rain = 0
KSP2 090636Z 26009KT 05/05 A3026 RMK A01 T00520049  RH  098%=      5-min Rain = 0
KSP2 090637Z 26008KT 05/05 A3026 RMK A01 T00530049  RH  098%=      5-min Rain = 0
KSP2 090638Z 26008KT 05/05 A3027 RMK A01 T00520049  RH  098%=      5-min Rain = 0
KSP2 090639Z 26007KT 05/05 A3027 RMK A01 T00520049  RH  098%=      5-min Rain = 0
KSP2 090640Z 27008KT 05/05 A3027 RMK A01 T00520049  RH  098%=      5-min Rain = 0
KSP2 090641Z 27008KT 05/05 A3027 RMK A01 T00520048  RH  098%=      5-min Rain = 0
KSP2 090642Z 27008KT 05/05 A3027 RMK A01 T00510047  RH  097%=      5-min Rain = 0
KSP2 090643Z 27008KT 05/05 A3027 RMK A01 T00500046  RH  097%=      5-min Rain = 0
KSP2 090644Z 27008KT 05/05 A3027 RMK A01 T00500046  RH  097%=      5-min Rain = 0
KSP2 090645Z 27008KT 05/05 A3027 RMK A01 T00500046  RH  097%=      5-min Rain = 0
KSP2 090646Z 26008KT 05/05 A3027 RMK A01 T00500046  RH  097%=      5-min Rain = 0
KSP2 090647Z 26009KT 05/05 A3027 RMK A01 T00500047  RH  098%=      5-min Rain = 0
KSP2 090648Z 26009KT 05/05 A3026 RMK A01 T00500047  RH  098%=      5-min Rain = 0
KSP2 090649Z 26009KT 05/05 A3026 RMK A01 T00510048  RH  098%=      5-min Rain = 0
KSP2 090650Z 26009KT 05/05 A3026 RMK A01 T00510048  RH  098%=      5-min Rain = 0
KSP2 090651Z 26008KT 05/05 A3026 RMK A01 T00520049  RH  098%=      5-min Rain = 0
KSP2 090652Z 25009KT 05/05 A3026 RMK A01 T00510049  RH  098%=      5-min Rain = 0
KSP2 090653Z 25009KT 05/05 A3026 RMK A01 T00520049  RH  098%=      5-min Rain = 0
KSP2 090654Z 25009KT 05/05 A3026 RMK A01 T00520049  RH  098%=      5-min Rain = 0
KSP2 090655Z 25008KT 05/05 A3026 RMK A01 T00520049  RH  098%=      5-min Rain = 0
KSP2 090656Z 25008KT 05/05 A3026 RMK A01 T00520049  RH  098%=      5-min Rain = 0
KSP2 090657Z 25009KT 05/05 A3026 RMK A01 T00520049  RH  098%=      5-min Rain = 0
KSP2 090658Z 26008KT 05/05 A3026 RMK A01 T00520049  RH  098%=      5-min Rain = 0
KSP2 090659Z 25008KT 05/05 A3026 RMK A01 T00520049  RH  098%=      5-min Rain = 0
KSP2 090700Z 25008KT 05/05 A3026 RMK A01 T00520049  RH  098%=      5-min Rain = 0
KSP2 090701Z 26007KT 05/05 A3026 RMK A01 T00520049  RH  098%=      5-min Rain = 0
KSP2 090702Z 26008KT 05/05 A3026 RMK A01 T00520049  RH  098%=      5-min Rain = 0
KSP2 090703Z 26007KT 05/05 A3026 RMK A01 T00520049  RH  098%=      5-min Rain = 0
KSP2 090704Z 25007KT 05/05 A3026 RMK A01 T00520048  RH  098%=      5-min Rain = 0
KSP2 090705Z 25008KT 05/05 A3026 RMK A01 T00510047  RH  098%=      5-min Rain = 0
KSP2 090706Z 25008KT 05/05 A3026 RMK A01 T00510047  RH  098%=      5-min Rain = 0
KSP2 090707Z 25008KT 05/05 A3026 RMK A01 T00500047  RH  098%=      5-min Rain = 0
KSP2 090708Z 25008KT 05/05 A3026 RMK A01 T00510047  RH  098%=      5-min Rain = 0
KSP2 090709Z 25008KT 05/05 A3026 RMK A01 T00510047  RH  098%=      5-min Rain = 0
KSP2 090710Z 25008KT 05/05 A3026 RMK A01 T00510047  RH  098%=      5-min Rain = 0
KSP2 090711Z 25007KT 05/05 A3026 RMK A01 T00510047  RH  098%=      5-min Rain = 0
KSP2 090712Z 25008KT 05/05 A3026 RMK A01 T00500047  RH  098%=      5-min Rain = 0
KSP2 090713Z 26008KT 05/05 A3026 RMK A01 T00500046  RH  098%=      5-min Rain = 0
KSP2 090714Z 26007KT 05/05 A3026 RMK A01 T00500046  RH  098%=      5-min Rain = 0
KSP2 090715Z 26007KT 05/05 A3026 RMK A01 T00500046  RH  098%=      5-min Rain = 0
KSP2 090719Z 26006KT 05/05 A3026 RMK A01 T00480045  RH  098%=      5-min Rain = 0
KSP2 090720Z 27006KT 05/04 A3026 RMK A01 T00480044  RH  098%=      5-min Rain = 0
KSP2 090721Z 27006KT 05/04 A3026 RMK A01 T00470044  RH  098%=      5-min Rain = 0
KSP2 090722Z 27006KT 05/04 A3026 RMK A01 T00460043  RH  098%=      5-min Rain = 0
KSP2 090723Z 27006KT 05/04 A3026 RMK A01 T00460042  RH  098%=      5-min Rain = 0
KSP2 090724Z 27007KT 05/04 A3026 RMK A01 T00450041  RH  097%=      5-min Rain = 0
KSP2 090725Z 27007KT 04/04 A3026 RMK A01 T00440040  RH  098%=      5-min Rain = 0
KSP2 090726Z 27007KT 04/04 A3026 RMK A01 T00440040  RH  098%=      5-min Rain = 0
KSP2 090727Z 27007KT 04/04 A3025 RMK A01 T00440041  RH  098%=      5-min Rain = 0
KSP2 090728Z 27007KT 04/04 A3025 RMK A01 T00440041  RH  098%=      5-min Rain = 0
KSP2 090729Z 27008KT 04/04 A3025 RMK A01 T00440041  RH  098%=      5-min Rain = 0
KSP2 090730Z 27008KT 04/04 A3025 RMK A01 T00440041  RH  098%=      5-min Rain = 0
KSP2 090731Z 27009KT 04/04 A3025 RMK A01 T00440042  RH  098%=      5-min Rain = 0
KSP2 090732Z 26008KT 05/04 A3025 RMK A01 T00450043  RH  098%=      5-min Rain = 0
KSP2 090733Z 26009KT 05/04 A3025 RMK A01 T00450043  RH  098%=      5-min Rain = 0
KSP2 090734Z 26007KT 05/04 A3025 RMK A01 T00450043  RH  099%=      5-min Rain = 0
KSP2 090735Z 26008KT 05/04 A3025 RMK A01 T00450043  RH  099%=      5-min Rain = 0
KSP2 090736Z 26008KT 05/04 A3025 RMK A01 T00450043  RH  099%=      5-min Rain = 0
KSP2 090737Z 26009KT 05/04 A3025 RMK A01 T00450043  RH  099%=      5-min Rain = 0
KSP2 090738Z 26009KT 05/04 A3025 RMK A01 T00460044  RH  099%=      5-min Rain = 0
KSP2 090739Z 26008KT 05/04 A3025 RMK A01 T00460044  RH  099%=      5-min Rain = 0
KSP2 090740Z 26009KT 05/04 A3025 RMK A01 T00460044  RH  099%=      5-min Rain = 0
KSP2 090741Z 26008KT 05/04 A3025 RMK A01 T00460044  RH  099%=      5-min Rain = 0
KSP2 090742Z 26008KT 05/04 A3025 RMK A01 T00460044  RH  099%=      5-min Rain = 0
KSP2 090743Z 26008KT 05/04 A3025 RMK A01 T00460044  RH  099%=      5-min Rain = 0
KSP2 090744Z 26007KT 05/04 A3025 RMK A01 T00460044  RH  099%=      5-min Rain = 0
KSP2 090745Z 26008KT 05/04 A3025 RMK A01 T00460044  RH  099%=      5-min Rain = 0
KSP2 090746Z 26008KT 05/04 A3025 RMK A01 T00460043  RH  099%=      5-min Rain = 0
KSP2 090747Z 26008KT 05/04 A3025 RMK A01 T00460044  RH  099%=      5-min Rain = 0
KSP2 090748Z 26008KT 05/04 A3025 RMK A01 T00450043  RH  099%=      5-min Rain = 0
KSP2 090749Z 26007KT 05/04 A3025 RMK A01 T00450043  RH  099%=      5-min Rain = 0
KSP2 090750Z 26007KT 05/04 A3025 RMK A01 T00450043  RH  099%=      5-min Rain = 0
KSP2 090751Z 26008KT 04/04 A3025 RMK A01 T00440042  RH  099%=      5-min Rain = 0
KSP2 090752Z 26007KT 04/04 A3025 RMK A01 T00440042  RH  099%=      5-min Rain = 0
KSP2 090753Z 26007KT 04/04 A3025 RMK A01 T00440042  RH  099%=      5-min Rain = 0
KSP2 090754Z 26007KT 04/04 A3025 RMK A01 T00440042  RH  099%=      5-min Rain = 0
KSP2 090755Z 26007KT 04/04 A3025 RMK A01 T00440042  RH  099%=      5-min Rain = 0
KSP2 090756Z 26007KT 04/04 A3025 RMK A01 T00440042  RH  099%=      5-min Rain = 0
KSP2 090757Z 26007KT 04/04 A3025 RMK A01 T00440042  RH  099%=      5-min Rain = 0
KSP2 090758Z 27006KT 04/04 A3024 RMK A01 T00440042  RH  099%=      5-min Rain = 0
KSP2 090759Z 27007KT 04/04 A3024 RMK A01 T00440042  RH  099%=      5-min Rain = 0
KSP2 090800Z 27007KT 04/04 A3024 RMK A01 T00440042  RH  099%=      5-min Rain = 0
KSP2 090801Z 27008KT 04/04 A3024 RMK A01 T00440042  RH  099%=      5-min Rain = 0
KSP2 090802Z 27008KT 04/04 A3024 RMK A01 T00440042  RH  099%=      5-min Rain = 0
KSP2 090803Z 27007KT 04/04 A3024 RMK A01 T00440042  RH  099%=      5-min Rain = 0
KSP2 090804Z 27007KT 04/04 A3025 RMK A01 T00430041  RH  099%=      5-min Rain = 0
KSP2 090805Z 27007KT 04/04 A3025 RMK A01 T00430041  RH  099%=      5-min Rain = 0
KSP2 090806Z 27007KT 04/04 A3025 RMK A01 T00420040  RH  099%=      5-min Rain = 0
KSP2 090807Z 27007KT 04/04 A3025 RMK A01 T00410039  RH  099%=      5-min Rain = 0
KSP2 090808Z 27007KT 04/04 A3025 RMK A01 T00410039  RH  099%=      5-min Rain = 0
KSP2 090809Z 27006KT 04/04 A3025 RMK A01 T00400038  RH  098%=      5-min Rain = 0
KSP2 090810Z 27007KT 04/04 A3025 RMK A01 T00390037  RH  098%=      5-min Rain = 0
KSP2 090811Z 27007KT 04/04 A3025 RMK A01 T00390036  RH  098%=      5-min Rain = 0
KSP2 090812Z 27007KT 04/04 A3025 RMK A01 T00380036  RH  098%=      5-min Rain = 0
KSP2 090813Z 27007KT 04/04 A3025 RMK A01 T00370035  RH  098%=      5-min Rain = 0
KSP2 090814Z 27007KT 04/04 A3025 RMK A01 T00370035  RH  098%=      5-min Rain = 0
KSP2 090815Z 27008KT 04/03 A3024 RMK A01 T00370034  RH  098%=      5-min Rain = 0
KSP2 090816Z 27008KT 04/03 A3024 RMK A01 T00360034  RH  098%=      5-min Rain = 0
KSP2 090817Z 27008KT 04/03 A3024 RMK A01 T00360033  RH  098%=      5-min Rain = 0
KSP2 090818Z 27008KT 04/03 A3024 RMK A01 T00350033  RH  098%=      5-min Rain = 0
KSP2 090819Z 27007KT 04/03 A3024 RMK A01 T00350032  RH  098%=      5-min Rain = 0
KSP2 090820Z 27008KT 03/03 A3024 RMK A01 T00340032  RH  098%=      5-min Rain = 0
KSP2 090821Z 27007KT 03/03 A3024 RMK A01 T00340032  RH  098%=      5-min Rain = 0
KSP2 090822Z 27007KT 03/03 A3024 RMK A01 T00340032  RH  099%=      5-min Rain = 0
KSP2 090823Z 27007KT 03/03 A3024 RMK A01 T00330031  RH  098%=      5-min Rain = 0
KSP2 090824Z 27007KT 03/03 A3024 RMK A01 T00330031  RH  098%=      5-min Rain = 0
KSP2 090825Z 27007KT 03/03 A3025 RMK A01 T00320030  RH  098%=      5-min Rain = 0
KSP2 090826Z 27007KT 03/03 A3024 RMK A01 T00310029  RH  098%=      5-min Rain = 0
KSP2 090827Z 28007KT 03/03 A3025 RMK A01 T00310028  RH  098%=      5-min Rain = 0
KSP2 090828Z 28007KT 03/03 A3025 RMK A01 T00300027  RH  098%=      5-min Rain = 0
KSP2 090829Z 28007KT 03/03 A3025 RMK A01 T00290027  RH  098%=      5-min Rain = 0
KSP2 090830Z 28007KT 03/03 A3025 RMK A01 T00290026  RH  098%=      5-min Rain = 0
KSP2 090831Z 27007KT 03/03 A3025 RMK A01 T00280026  RH  098%=      5-min Rain = 0
KSP2 090832Z 27007KT 03/03 A3025 RMK A01 T00280025  RH  098%=      5-min Rain = 0
KSP2 090833Z 27008KT 03/02 A3024 RMK A01 T00270024  RH  098%=      5-min Rain = 0
KSP2 090834Z 27007KT 03/02 A3024 RMK A01 T00260024  RH  098%=      5-min Rain = 0
KSP2 090835Z 27008KT 03/02 A3024 RMK A01 T00260024  RH  098%=      5-min Rain = 0
KSP2 090836Z 27007KT 03/02 A3024 RMK A01 T00260024  RH  098%=      5-min Rain = 0
KSP2 090837Z 26007KT 03/02 A3024 RMK A01 T00260024  RH  098%=      5-min Rain = 0
KSP2 090838Z 27008KT 03/02 A3024 RMK A01 T00260023  RH  099%=      5-min Rain = 0
KSP2 090839Z 26007KT 03/02 A3024 RMK A01 T00260024  RH  099%=      5-min Rain = 0
KSP2 090840Z 27007KT 03/02 A3024 RMK A01 T00260023  RH  099%=      5-min Rain = 0
KSP2 090841Z 27007KT 03/02 A3024 RMK A01 T00250023  RH  099%=      5-min Rain = 0
KSP2 090842Z 27006KT 03/02 A3024 RMK A01 T00250024  RH  099%=      5-min Rain = 0
KSP2 090843Z 27007KT 03/02 A3024 RMK A01 T00250023  RH  099%=      5-min Rain = 0
KSP2 090844Z 28007KT 03/02 A3024 RMK A01 T00250023  RH  099%=      5-min Rain = 0
KSP2 090845Z 27007KT 02/02 A3024 RMK A01 T00240022  RH  099%=      5-min Rain = 0
KSP2 090846Z 27007KT 03/02 A3024 RMK A01 T00250023  RH  099%=      5-min Rain = 0
KSP2 090847Z 27007KT 02/02 A3024 RMK A01 T00240023  RH  099%=      5-min Rain = 0
KSP2 090848Z 27007KT 02/02 A3024 RMK A01 T00240022  RH  099%=      5-min Rain = 0
KSP2 090849Z 27007KT 02/02 A3024 RMK A01 T00240022  RH  099%=      5-min Rain = 0
KSP2 090850Z 27007KT 02/02 A3024 RMK A01 T00230021  RH  099%=      5-min Rain = 0
KSP2 090851Z 27007KT 02/02 A3024 RMK A01 T00230021  RH  099%=      5-min Rain = 0
KSP2 090852Z 27007KT 02/02 A3024 RMK A01 T00230021  RH  099%=      5-min Rain = 0
KSP2 090853Z 26007KT 02/02 A3024 RMK A01 T00230021  RH  099%=      5-min Rain = 0
KSP2 090854Z 26007KT 02/02 A3024 RMK A01 T00230021  RH  099%=      5-min Rain = 0
KSP2 090855Z 26007KT 02/02 A3024 RMK A01 T00230021  RH  099%=      5-min Rain = 0
KSP2 090856Z 25008KT 02/02 A3024 RMK A01 T00230021  RH  099%=      5-min Rain = 0
KSP2 090857Z 26007KT 02/02 A3024 RMK A01 T00230021  RH  099%=      5-min Rain = 0
KSP2 090858Z 26008KT 02/02 A3024 RMK A01 T00230021  RH  099%=      5-min Rain = 0
KSP2 090859Z 26007KT 02/02 A3024 RMK A01 T00230021  RH  099%=      5-min Rain = 0
KSP2 090900Z 26007KT 02/02 A3024 RMK A01 T00230021  RH  099%=      5-min Rain = 0
KSP2 090901Z 27006KT 02/02 A3024 RMK A01 T00220020  RH  098%=      5-min Rain = 0
KSP2 090902Z 27006KT 02/02 A3024 RMK A01 T00220020  RH  098%=      5-min Rain = 0
KSP2 090903Z 27006KT 02/02 A3024 RMK A01 T00220020  RH  098%=      5-min Rain = 0
KSP2 090904Z 27006KT 02/02 A3024 RMK A01 T00210019  RH  098%=      5-min Rain = 0
KSP2 090905Z 27007KT 02/02 A3024 RMK A01 T00210018  RH  098%=      5-min Rain = 0
KSP2 090906Z 27006KT 02/02 A3024 RMK A01 T00210018  RH  098%=      5-min Rain = 0
KSP2 090907Z 27006KT 02/02 A3024 RMK A01 T00200018  RH  098%=      5-min Rain = 0
KSP2 090908Z 27005KT 02/02 A3024 RMK A01 T00200018  RH  098%=      5-min Rain = 0
KSP2 090909Z 28006KT 02/02 A3024 RMK A01 T00200018  RH  098%=      5-min Rain = 0
KSP2 090910Z 28007KT 02/02 A3024 RMK A01 T00200018  RH  098%=      5-min Rain = 0
KSP2 090911Z 28007KT 02/02 A3024 RMK A01 T00210018  RH  098%=      5-min Rain = 0
KSP2 090912Z 28008KT 02/02 A3024 RMK A01 T00210019  RH  098%=      5-min Rain = 0
KSP2 090913Z 27007KT 02/02 A3024 RMK A01 T00220020  RH  099%=      5-min Rain = 0
KSP2 090914Z 27007KT 02/02 A3024 RMK A01 T00230021  RH  099%=      5-min Rain = 0
KSP2 090915Z 27008KT 02/02 A3024 RMK A01 T00230021  RH  098%=      5-min Rain = 0
KSP2 090916Z 27008KT 02/02 A3024 RMK A01 T00230021  RH  098%=      5-min Rain = 0
KSP2 090917Z 27007KT 02/02 A3024 RMK A01 T00240021  RH  098%=      5-min Rain = 0
KSP2 090918Z 27007KT 02/02 A3024 RMK A01 T00240021  RH  098%=      5-min Rain = 0
KSP2 090919Z 27007KT 02/02 A3024 RMK A01 T00240021  RH  098%=      5-min Rain = 0
KSP2 090920Z 27007KT 02/02 A3024 RMK A01 T00240021  RH  098%=      5-min Rain = 0
KSP2 090921Z 27007KT 02/02 A3024 RMK A01 T00240021  RH  098%=      5-min Rain = 0
KSP2 090922Z 27007KT 02/02 A3024 RMK A01 T00240022  RH  098%=      5-min Rain = 0
KSP2 090923Z 27007KT 03/02 A3024 RMK A01 T00250022  RH  098%=      5-min Rain = 0
KSP2 090924Z 27007KT 02/02 A3023 RMK A01 T00240021  RH  098%=      5-min Rain = 0
KSP2 090925Z 27007KT 03/02 A3023 RMK A01 T00250021  RH  098%=      5-min Rain = 0
KSP2 090926Z 27007KT 03/02 A3023 RMK A01 T00250022  RH  098%=      5-min Rain = 0
KSP2 090927Z 27007KT 03/02 A3023 RMK A01 T00250022  RH  098%=      5-min Rain = 0
KSP2 090928Z 27006KT 03/02 A3023 RMK A01 T00250022  RH  098%=      5-min Rain = 0
KSP2 090929Z 26007KT 03/02 A3023 RMK A01 T00250022  RH  098%=      5-min Rain = 0
KSP2 090930Z 26008KT 03/02 A3023 RMK A01 T00250021  RH  098%=      5-min Rain = 0
KSP2 090931Z 26007KT 03/02 A3023 RMK A01 T00250022  RH  098%=      5-min Rain = 0
KSP2 090932Z 26008KT 03/02 A3023 RMK A01 T00250022  RH  098%=      5-min Rain = 0
KSP2 090933Z 26008KT 03/02 A3023 RMK A01 T00260023  RH  098%=      5-min Rain = 0
KSP2 090934Z 26008KT 03/02 A3023 RMK A01 T00260022  RH  098%=      5-min Rain = 0
KSP2 090935Z 25008KT 03/02 A3023 RMK A01 T00260023  RH  098%=      5-min Rain = 0
KSP2 090936Z 25008KT 03/02 A3023 RMK A01 T00270023  RH  098%=      5-min Rain = 0
KSP2 090937Z 25008KT 03/02 A3023 RMK A01 T00270023  RH  098%=      5-min Rain = 0
KSP2 090938Z 25009KT 03/02 A3023 RMK A01 T00270024  RH  098%=      5-min Rain = 0
KSP2 090939Z 25008KT 03/02 A3023 RMK A01 T00270024  RH  097%=      5-min Rain = 0
KSP2 090940Z 25008KT 03/02 A3023 RMK A01 T00270024  RH  097%=      5-min Rain = 0
KSP2 090941Z 25008KT 03/02 A3023 RMK A01 T00270023  RH  097%=      5-min Rain = 0
KSP2 090942Z 26007KT 03/02 A3023 RMK A01 T00270022  RH  097%=      5-min Rain = 0
KSP2 090943Z 26006KT 03/02 A3023 RMK A01 T00260022  RH  097%=      5-min Rain = 0
KSP2 090944Z 26007KT 03/02 A3023 RMK A01 T00260022  RH  097%=      5-min Rain = 0
KSP2 090945Z 26006KT 03/02 A3023 RMK A01 T00260022  RH  097%=      5-min Rain = 0
KSP2 090946Z 26007KT 03/02 A3023 RMK A01 T00260022  RH  097%=      5-min Rain = 0
KSP2 090947Z 26007KT 03/02 A3023 RMK A01 T00260022  RH  097%=      5-min Rain = 0
KSP2 090948Z 26006KT 03/02 A3023 RMK A01 T00250021  RH  097%=      5-min Rain = 0
KSP2 090949Z 26006KT 03/02 A3023 RMK A01 T00250021  RH  097%=      5-min Rain = 0
KSP2 090950Z 26006KT 02/02 A3023 RMK A01 T00240020  RH  097%=      5-min Rain = 0
KSP2 090951Z 26006KT 02/02 A3023 RMK A01 T00240020  RH  097%=      5-min Rain = 0
KSP2 090952Z 27006KT 02/02 A3023 RMK A01 T00240020  RH  097%=      5-min Rain = 0
KSP2 090953Z 26006KT 02/02 A3023 RMK A01 T00240020  RH  097%=      5-min Rain = 0
KSP2 090954Z 26006KT 02/02 A3023 RMK A01 T00240020  RH  097%=      5-min Rain = 0
KSP2 090955Z 27006KT 02/02 A3023 RMK A01 T00240020  RH  097%=      5-min Rain = 0
KSP2 090956Z 27005KT 02/02 A3023 RMK A01 T00230019  RH  097%=      5-min Rain = 0
KSP2 090957Z 27005KT 02/02 A3023 RMK A01 T00220018  RH  097%=      5-min Rain = 0
KSP2 090958Z 27006KT 02/02 A3023 RMK A01 T00220018  RH  097%=      5-min Rain = 0
KSP2 090959Z 26006KT 02/02 A3023 RMK A01 T00220018  RH  097%=      5-min Rain = 0
KSP2 091000Z 26006KT 02/02 A3022 RMK A01 T00220018  RH  097%=      5-min Rain = 0
KSP2 091001Z 26007KT 02/02 A3022 RMK A01 T00220018  RH  097%=      5-min Rain = 0
KSP2 091002Z 26007KT 02/02 A3022 RMK A01 T00210017  RH  097%=      5-min Rain = 0
KSP2 091003Z 26007KT 02/02 A3022 RMK A01 T00210017  RH  097%=      5-min Rain = 0
KSP2 091004Z 26008KT 02/02 A3022 RMK A01 T00200017  RH  097%=      5-min Rain = 0
KSP2 091005Z 25008KT 02/02 A3022 RMK A01 T00200016  RH  097%=      5-min Rain = 0
KSP2 091006Z 24007KT 02/02 A3022 RMK A01 T00190016  RH  097%=      5-min Rain = 0
KSP2 091007Z 24007KT 02/02 A3022 RMK A01 T00190015  RH  097%=      5-min Rain = 0
KSP2 091008Z 24008KT 02/02 A3022 RMK A01 T00190015  RH  097%=      5-min Rain = 0
KSP2 091009Z 24009KT 02/02 A3022 RMK A01 T00180015  RH  098%=      5-min Rain = 0
KSP2 091010Z 25010KT 02/02 A3022 RMK A01 T00200017  RH  098%=      5-min Rain = 0
KSP2 091011Z 25009KT 02/02 A3022 RMK A01 T00220019  RH  098%=      5-min Rain = 0
KSP2 091012Z 25009KT 02/02 A3022 RMK A01 T00220020  RH  098%=      5-min Rain = 0
KSP2 091013Z 25009KT 02/02 A3022 RMK A01 T00230020  RH  098%=      5-min Rain = 0
KSP2 091014Z 25009KT 02/02 A3022 RMK A01 T00230021  RH  098%=      5-min Rain = 0
KSP2 091015Z 25009KT 02/02 A3022 RMK A01 T00240022  RH  098%=      5-min Rain = 0
KSP2 091016Z 25009KT 03/02 A3022 RMK A01 T00250022  RH  098%=      5-min Rain = 0
KSP2 091017Z 25008KT 03/02 A3022 RMK A01 T00250022  RH  098%=      5-min Rain = 0
KSP2 091018Z 25009KT 03/02 A3022 RMK A01 T00260023  RH  098%=      5-min Rain = 0
KSP2 091019Z 25008KT 03/02 A3022 RMK A01 T00260024  RH  098%=      5-min Rain = 0
KSP2 091020Z 24006KT 03/02 A3022 RMK A01 T00270024  RH  098%=      5-min Rain = 0
KSP2 091021Z 24007KT 03/03 A3022 RMK A01 T00270025  RH  098%=      5-min Rain = 0
KSP2 091022Z 24006KT 03/02 A3022 RMK A01 T00270024  RH  098%=      5-min Rain = 0
KSP2 091023Z 24005KT 03/02 A3022 RMK A01 T00270024  RH  098%=      5-min Rain = 0
KSP2 091024Z 24006KT 03/02 A3022 RMK A01 T00260023  RH  098%=      5-min Rain = 0
KSP2 091025Z 25006KT 03/02 A3022 RMK A01 T00260023  RH  098%=      5-min Rain = 0
KSP2 091026Z 25007KT 03/02 A3022 RMK A01 T00270024  RH  098%=      5-min Rain = 0
KSP2 091027Z 25007KT 03/03 A3022 RMK A01 T00270025  RH  098%=      5-min Rain = 0
KSP2 091028Z 25008KT 03/03 A3022 RMK A01 T00280026  RH  098%=      5-min Rain = 0
KSP2 091029Z 25007KT 03/03 A3022 RMK A01 T00290026  RH  098%=      5-min Rain = 0
KSP2 091030Z 25008KT 03/03 A3022 RMK A01 T00300027  RH  098%=      5-min Rain = 0
KSP2 091031Z 25007KT 03/03 A3022 RMK A01 T00300028  RH  098%=      5-min Rain = 0
KSP2 091032Z 25006KT 03/03 A3022 RMK A01 T00300027  RH  098%=      5-min Rain = 0
KSP2 091033Z 25007KT 03/03 A3022 RMK A01 T00290026  RH  098%=      5-min Rain = 0
KSP2 091034Z 25007KT 03/03 A3022 RMK A01 T00290025  RH  098%=      5-min Rain = 0
KSP2 091035Z 25007KT 03/03 A3022 RMK A01 T00280025  RH  098%=      5-min Rain = 0
KSP2 091036Z 25008KT 03/03 A3022 RMK A01 T00280025  RH  098%=      5-min Rain = 0
KSP2 091037Z 25008KT 03/03 A3022 RMK A01 T00280025  RH  098%=      5-min Rain = 0
KSP2 091038Z 25008KT 03/03 A3022 RMK A01 T00280025  RH  098%=      5-min Rain = 0
KSP2 091039Z 25008KT 03/03 A3022 RMK A01 T00290026  RH  098%=      5-min Rain = 0
KSP2 091040Z 25009KT 03/03 A3021 RMK A01 T00290026  RH  098%=      5-min Rain = 0
KSP2 091041Z 25009KT 03/03 A3021 RMK A01 T00300027  RH  098%=      5-min Rain = 0
KSP2 091042Z 25008KT 03/03 A3021 RMK A01 T00300027  RH  098%=      5-min Rain = 0
KSP2 091043Z 25007KT 03/03 A3021 RMK A01 T00310028  RH  098%=      5-min Rain = 0
KSP2 091044Z 25007KT 03/03 A3021 RMK A01 T00310028  RH  098%=      5-min Rain = 0
KSP2 091045Z 26007KT 03/03 A3021 RMK A01 T00310028  RH  098%=      5-min Rain = 0
KSP2 091046Z 25007KT 03/03 A3022 RMK A01 T00310028  RH  098%=      5-min Rain = 0
KSP2 091047Z 26006KT 03/03 A3022 RMK A01 T00310028  RH  098%=      5-min Rain = 0
KSP2 091048Z 26007KT 03/03 A3022 RMK A01 T00310028  RH  098%=      5-min Rain = 0
KSP2 091049Z 26006KT 03/03 A3022 RMK A01 T00310028  RH  098%=      5-min Rain = 0
KSP2 091050Z 26006KT 03/03 A3022 RMK A01 T00320028  RH  098%=      5-min Rain = 0
KSP2 091051Z 26006KT 03/03 A3022 RMK A01 T00310028  RH  098%=      5-min Rain = 0
KSP2 091052Z 26006KT 03/03 A3022 RMK A01 T00320028  RH  098%=      5-min Rain = 0
KSP2 091053Z 26005KT 03/03 A3022 RMK A01 T00320029  RH  098%=      5-min Rain = 0
KSP2 091054Z 26005KT 03/03 A3022 RMK A01 T00320028  RH  098%=      5-min Rain = 0
KSP2 091055Z 26005KT 03/03 A3022 RMK A01 T00320029  RH  098%=      5-min Rain = 0
KSP2 091056Z 26005KT 03/03 A3022 RMK A01 T00320028  RH  097%=      5-min Rain = 0
KSP2 091057Z 26005KT 03/03 A3022 RMK A01 T00320028  RH  097%=      5-min Rain = 0
KSP2 091058Z 26005KT 03/03 A3022 RMK A01 T00320028  RH  097%=      5-min Rain = 0
KSP2 091059Z 26006KT 03/03 A3022 RMK A01 T00320028  RH  097%=      5-min Rain = 0
KSP2 091100Z 25005KT 03/03 A3022 RMK A01 T00320028  RH  097%=      5-min Rain = 0
KSP2 091101Z 25006KT 03/03 A3022 RMK A01 T00320028  RH  098%=      5-min Rain = 0
KSP2 091102Z 25006KT 03/03 A3022 RMK A01 T00320028  RH  098%=      5-min Rain = 0
KSP2 091103Z 25006KT 03/03 A3022 RMK A01 T00320029  RH  098%=      5-min Rain = 0
KSP2 091104Z 26006KT 03/03 A3022 RMK A01 T00320028  RH  098%=      5-min Rain = 0
KSP2 091105Z 26006KT 03/03 A3022 RMK A01 T00320029  RH  098%=      5-min Rain = 0
KSP2 091106Z 26006KT 03/03 A3022 RMK A01 T00320029  RH  098%=      5-min Rain = 0
KSP2 091107Z 26006KT 03/03 A3022 RMK A01 T00320029  RH  098%=      5-min Rain = 0
KSP2 091108Z 27006KT 03/03 A3022 RMK A01 T00320029  RH  098%=      5-min Rain = 0
KSP2 091109Z 27006KT 03/03 A3022 RMK A01 T00320029  RH  098%=      5-min Rain = 0
KSP2 091110Z 27006KT 03/03 A3022 RMK A01 T00320028  RH  098%=      5-min Rain = 0
KSP2 091111Z 26006KT 03/03 A3022 RMK A01 T00320028  RH  098%=      5-min Rain = 0
KSP2 091112Z 26007KT 03/03 A3022 RMK A01 T00310027  RH  098%=      5-min Rain = 0
KSP2 091113Z 26006KT 03/03 A3022 RMK A01 T00310027  RH  097%=      5-min Rain = 0
KSP2 091114Z 26006KT 03/03 A3022 RMK A01 T00310027  RH  097%=      5-min Rain = 0
KSP2 091115Z 26006KT 03/03 A3022 RMK A01 T00300027  RH  098%=      5-min Rain = 0
KSP2 091116Z 26007KT 03/03 A3022 RMK A01 T00300027  RH  098%=      5-min Rain = 0
KSP2 091117Z 26007KT 03/03 A3022 RMK A01 T00300027  RH  098%=      5-min Rain = 0
KSP2 091118Z 26006KT 03/03 A3022 RMK A01 T00300027  RH  098%=      5-min Rain = 0
KSP2 091119Z 27006KT 03/03 A3022 RMK A01 T00300027  RH  098%=      5-min Rain = 0
KSP2 091120Z 27007KT 03/03 A3022 RMK A01 T00310027  RH  098%=      5-min Rain = 0
KSP2 091121Z 26008KT 03/03 A3022 RMK A01 T00310028  RH  098%=      5-min Rain = 0
KSP2 091122Z 26007KT 03/03 A3021 RMK A01 T00310028  RH  098%=      5-min Rain = 0
KSP2 091123Z 26008KT 03/03 A3021 RMK A01 T00310028  RH  098%=      5-min Rain = 0
KSP2 091124Z 27008KT 03/03 A3021 RMK A01 T00320029  RH  098%=      5-min Rain = 0
KSP2 091125Z 27008KT 03/03 A3021 RMK A01 T00320029  RH  098%=      5-min Rain = 0
KSP2 091126Z 26008KT 03/03 A3021 RMK A01 T00320029  RH  098%=      5-min Rain = 0
KSP2 091127Z 27008KT 03/03 A3021 RMK A01 T00320029  RH  098%=      5-min Rain = 0
KSP2 091128Z 26008KT 03/03 A3021 RMK A01 T00320029  RH  097%=      5-min Rain = 0
KSP2 091129Z 26008KT 03/03 A3021 RMK A01 T00320028  RH  097%=      5-min Rain = 0
KSP2 091130Z 27007KT 03/03 A3021 RMK A01 T00320028  RH  097%=      5-min Rain = 0
KSP2 091131Z 26008KT 03/03 A3021 RMK A01 T00310027  RH  097%=      5-min Rain = 0
KSP2 091132Z 27007KT 03/03 A3021 RMK A01 T00310027  RH  097%=      5-min Rain = 0
KSP2 091133Z 26008KT 03/03 A3021 RMK A01 T00310027  RH  097%=      5-min Rain = 0
KSP2 091134Z 26008KT 03/03 A3021 RMK A01 T00310027  RH  097%=      5-min Rain = 0
KSP2 091135Z 26007KT 03/03 A3021 RMK A01 T00310026  RH  097%=      5-min Rain = 0
KSP2 091136Z 26008KT 03/03 A3021 RMK A01 T00300026  RH  097%=      5-min Rain = 0
KSP2 091137Z 26008KT 03/03 A3021 RMK A01 T00300025  RH  097%=      5-min Rain = 0
KSP2 091138Z 26008KT 03/03 A3021 RMK A01 T00300026  RH  097%=      5-min Rain = 0
KSP2 091139Z 26007KT 03/03 A3021 RMK A01 T00300025  RH  097%=      5-min Rain = 0
KSP2 091140Z 25006KT 03/03 A3021 RMK A01 T00300025  RH  097%=      5-min Rain = 0
KSP2 091141Z 26006KT 03/02 A3021 RMK A01 T00290024  RH  097%=      5-min Rain = 0
KSP2 091142Z 25007KT 03/02 A3021 RMK A01 T00290024  RH  097%=      5-min Rain = 0
KSP2 091143Z 26006KT 03/02 A3021 RMK A01 T00280023  RH  097%=      5-min Rain = 0
KSP2 091144Z 26006KT 03/02 A3021 RMK A01 T00270023  RH  097%=      5-min Rain = 0
KSP2 091145Z 26006KT 03/02 A3021 RMK A01 T00270022  RH  097%=      5-min Rain = 0
KSP2 091146Z 26006KT 03/02 A3021 RMK A01 T00260022  RH  097%=      5-min Rain = 0
KSP2 091147Z 27007KT 03/02 A3021 RMK A01 T00270022  RH  097%=      5-min Rain = 0
KSP2 091148Z 26006KT 03/02 A3021 RMK A01 T00260021  RH  097%=      5-min Rain = 0
KSP2 091149Z 27007KT 03/02 A3021 RMK A01 T00260021  RH  097%=      5-min Rain = 0
KSP2 091150Z 26007KT 03/02 A3021 RMK A01 T00250020  RH  097%=      5-min Rain = 0
KSP2 091151Z 26006KT 03/02 A3021 RMK A01 T00250020  RH  097%=      5-min Rain = 0
KSP2 091152Z 26006KT 03/02 A3021 RMK A01 T00250020  RH  097%=      5-min Rain = 0
KSP2 091153Z 27006KT 02/02 A3021 RMK A01 T00240020  RH  097%=      5-min Rain = 0
KSP2 091154Z 26006KT 02/02 A3021 RMK A01 T00230019  RH  097%=      5-min Rain = 0
KSP2 091155Z 26006KT 02/02 A3022 RMK A01 T00230019  RH  097%=      5-min Rain = 0
KSP2 091156Z 26007KT 02/02 A3022 RMK A01 T00230019  RH  097%=      5-min Rain = 0
KSP2 091157Z 26006KT 02/02 A3022 RMK A01 T00230019  RH  097%=      5-min Rain = 0
KSP2 091158Z 26006KT 02/02 A3022 RMK A01 T00230019  RH  097%=      5-min Rain = 0
KSP2 091159Z 26007KT 02/02 A3022 RMK A01 T00220019  RH  097%=      5-min Rain = 0
KSP2 091200Z 26007KT 02/02 A3022 RMK A01 T00220019  RH  097%=      5-min Rain = 0
KSP2 091201Z 26006KT 02/02 A3022 RMK A01 T00220019  RH  098%=      5-min Rain = 0
KSP2 091202Z 26007KT 02/02 A3022 RMK A01 T00220019  RH  098%=      5-min Rain = 0
KSP2 091203Z 27007KT 02/02 A3022 RMK A01 T00220019  RH  097%=      5-min Rain = 0
KSP2 091204Z 27006KT 02/02 A3022 RMK A01 T00220019  RH  098%=      5-min Rain = 0
KSP2 091205Z 26006KT 02/02 A3022 RMK A01 T00220018  RH  098%=      5-min Rain = 0
KSP2 091206Z 27006KT 02/02 A3022 RMK A01 T00210018  RH  097%=      5-min Rain = 0
KSP2 091207Z 26006KT 02/02 A3022 RMK A01 T00220018  RH  097%=      5-min Rain = 0
KSP2 091208Z 26007KT 02/02 A3022 RMK A01 T00210018  RH  098%=      5-min Rain = 0
KSP2 091209Z 27007KT 02/02 A3022 RMK A01 T00210018  RH  098%=      5-min Rain = 0
KSP2 091210Z 27007KT 02/02 A3022 RMK A01 T00210018  RH  098%=      5-min Rain = 0
KSP2 091211Z 26007KT 02/02 A3022 RMK A01 T00220018  RH  098%=      5-min Rain = 0
KSP2 091212Z 26007KT 02/02 A3022 RMK A01 T00220019  RH  098%=      5-min Rain = 0
KSP2 091213Z 26007KT 02/02 A3022 RMK A01 T00220019  RH  098%=      5-min Rain = 0
KSP2 091214Z 26007KT 02/02 A3022 RMK A01 T00220019  RH  098%=      5-min Rain = 0
KSP2 091215Z 26007KT 02/02 A3022 RMK A01 T00220019  RH  098%=      5-min Rain = 0
KSP2 091216Z 26007KT 02/02 A3022 RMK A01 T00220019  RH  098%=      5-min Rain = 0
KSP2 091217Z 26007KT 02/02 A3022 RMK A01 T00220018  RH  098%=      5-min Rain = 0
KSP2 091218Z 26006KT 02/02 A3022 RMK A01 T00220018  RH  098%=      5-min Rain = 0
KSP2 091219Z 27006KT 02/02 A3022 RMK A01 T00220019  RH  098%=      5-min Rain = 0
KSP2 091220Z 27006KT 02/02 A3022 RMK A01 T00220018  RH  098%=      5-min Rain = 0
KSP2 091221Z 27006KT 02/02 A3022 RMK A01 T00220018  RH  098%=      5-min Rain = 0
KSP2 091222Z 27006KT 02/02 A3022 RMK A01 T00210018  RH  097%=      5-min Rain = 0
KSP2 091223Z 27007KT 02/02 A3022 RMK A01 T00210017  RH  097%=      5-min Rain = 0
KSP2 091224Z 27006KT 02/02 A3022 RMK A01 T00210017  RH  097%=      5-min Rain = 0
KSP2 091225Z 27006KT 02/02 A3022 RMK A01 T00210017  RH  097%=      5-min Rain = 0
KSP2 091226Z 27007KT 02/02 A3022 RMK A01 T00200017  RH  097%=      5-min Rain = 0
KSP2 091227Z 27007KT 02/02 A3022 RMK A01 T00210017  RH  097%=      5-min Rain = 0
KSP2 091228Z 27006KT 02/02 A3022 RMK A01 T00200016  RH  097%=      5-min Rain = 0
KSP2 091229Z 27007KT 02/02 A3022 RMK A01 T00200016  RH  097%=      5-min Rain = 0
KSP2 091230Z 27006KT 02/02 A3022 RMK A01 T00200016  RH  097%=      5-min Rain = 0
KSP2 091231Z 27007KT 02/02 A3022 RMK A01 T00200016  RH  097%=      5-min Rain = 0
KSP2 091232Z 27007KT 02/02 A3022 RMK A01 T00190016  RH  097%=      5-min Rain = 0
KSP2 091233Z 27007KT 02/02 A3023 RMK A01 T00190016  RH  097%=      5-min Rain = 0
KSP2 091234Z 27007KT 02/02 A3023 RMK A01 T00190015  RH  097%=      5-min Rain = 0
KSP2 091235Z 27007KT 02/02 A3023 RMK A01 T00190015  RH  097%=      5-min Rain = 0
KSP2 091236Z 27008KT 02/02 A3022 RMK A01 T00190015  RH  097%=      5-min Rain = 0
KSP2 091237Z 26007KT 02/02 A3022 RMK A01 T00190015  RH  097%=      5-min Rain = 0
KSP2 091238Z 26007KT 02/02 A3022 RMK A01 T00190015  RH  097%=      5-min Rain = 0
KSP2 091239Z 27008KT 02/02 A3022 RMK A01 T00180015  RH  098%=      5-min Rain = 0
KSP2 091240Z 27007KT 02/02 A3022 RMK A01 T00190015  RH  098%=      5-min Rain = 0
KSP2 091241Z 27008KT 02/02 A3022 RMK A01 T00190015  RH  098%=      5-min Rain = 0
KSP2 091242Z 27007KT 02/02 A3022 RMK A01 T00190015  RH  098%=      5-min Rain = 0
KSP2 091243Z 27007KT 02/02 A3022 RMK A01 T00190015  RH  098%=      5-min Rain = 0
KSP2 091244Z 27007KT 02/02 A3022 RMK A01 T00190015  RH  098%=      5-min Rain = 0
KSP2 091245Z 27007KT 02/02 A3022 RMK A01 T00180015  RH  098%=      5-min Rain = 0
KSP2 091246Z 26006KT 02/02 A3022 RMK A01 T00180015  RH  097%=      5-min Rain = 0
KSP2 091247Z 27007KT 02/01 A3022 RMK A01 T00180014  RH  097%=      5-min Rain = 0
KSP2 091248Z 27007KT 02/01 A3023 RMK A01 T00180014  RH  097%=      5-min Rain = 0
KSP2 091249Z 27006KT 02/01 A3023 RMK A01 T00170013  RH  097%=      5-min Rain = 0
KSP2 091250Z 27007KT 02/01 A3023 RMK A01 T00170013  RH  097%=      5-min Rain = 0
KSP2 091251Z 26007KT 02/01 A3023 RMK A01 T00170013  RH  097%=      5-min Rain = 0
KSP2 091252Z 26007KT 02/01 A3022 RMK A01 T00170013  RH  098%=      5-min Rain = 0
KSP2 091253Z 26008KT 02/01 A3022 RMK A01 T00170013  RH  098%=      5-min Rain = 0
KSP2 091254Z 27007KT 02/01 A3022 RMK A01 T00170013  RH  098%=      5-min Rain = 0
KSP2 091255Z 26007KT 02/01 A3022 RMK A01 T00170013  RH  098%=      5-min Rain = 0
KSP2 091256Z 27007KT 02/01 A3022 RMK A01 T00170013  RH  098%=      5-min Rain = 0
KSP2 091257Z 27008KT 02/01 A3022 RMK A01 T00170013  RH  097%=      5-min Rain = 0
KSP2 091258Z 26006KT 02/01 A3022 RMK A01 T00170013  RH  097%=      5-min Rain = 0
KSP2 091259Z 27007KT 02/01 A3022 RMK A01 T00170013  RH  097%=      5-min Rain = 0
KSP2 091300Z 27006KT 02/01 A3022 RMK A01 T00170013  RH  097%=      5-min Rain = 0
KSP2 091301Z 27007KT 02/01 A3022 RMK A01 T00170013  RH  097%=      5-min Rain = 0
KSP2 091302Z 27008KT 02/01 A3022 RMK A01 T00170013  RH  097%=      5-min Rain = 0
KSP2 091303Z 27007KT 02/01 A3022 RMK A01 T00170013  RH  097%=      5-min Rain = 0
KSP2 091304Z 26008KT 02/01 A3022 RMK A01 T00170013  RH  097%=      5-min Rain = 0
KSP2 091305Z 26008KT 02/01 A3022 RMK A01 T00170013  RH  097%=      5-min Rain = 0
KSP2 091306Z 26007KT 02/01 A3022 RMK A01 T00170014  RH  097%=      5-min Rain = 0
KSP2 091307Z 26007KT 02/01 A3022 RMK A01 T00170014  RH  097%=      5-min Rain = 0
KSP2 091308Z 26007KT 02/01 A3022 RMK A01 T00170013  RH  097%=      5-min Rain = 0
KSP2 091309Z 26007KT 02/01 A3022 RMK A01 T00170013  RH  097%=      5-min Rain = 0
KSP2 091310Z 26007KT 02/01 A3022 RMK A01 T00170013  RH  097%=      5-min Rain = 0
KSP2 091311Z 26007KT 02/01 A3023 RMK A01 T00170013  RH  097%=      5-min Rain = 0
KSP2 091312Z 26007KT 02/01 A3023 RMK A01 T00170013  RH  097%=      5-min Rain = 0
KSP2 091313Z 26007KT 02/01 A3023 RMK A01 T00170012  RH  097%=      5-min Rain = 0
KSP2 091314Z 26007KT 02/01 A3023 RMK A01 T00170012  RH  097%=      5-min Rain = 0
KSP2 091315Z 26007KT 02/01 A3023 RMK A01 T00160012  RH  097%=      5-min Rain = 0
KSP2 091316Z 26007KT 02/01 A3023 RMK A01 T00160012  RH  097%=      5-min Rain = 0
KSP2 091317Z 26007KT 02/01 A3023 RMK A01 T00160012  RH  097%=      5-min Rain = 0
KSP2 091318Z 26007KT 02/01 A3023 RMK A01 T00150011  RH  097%=      5-min Rain = 0
KSP2 091319Z 26006KT 02/01 A3023 RMK A01 T00150011  RH  097%=      5-min Rain = 0
KSP2 091320Z 26006KT 02/01 A3023 RMK A01 T00150011  RH  097%=      5-min Rain = 0
KSP2 091321Z 26006KT 02/01 A3023 RMK A01 T00150011  RH  097%=      5-min Rain = 0
KSP2 091322Z 26006KT 02/01 A3023 RMK A01 T00150011  RH  097%=      5-min Rain = 0
KSP2 091323Z 26007KT 02/01 A3023 RMK A01 T00150011  RH  097%=      5-min Rain = 0
KSP2 091324Z 26007KT 02/01 A3023 RMK A01 T00150011  RH  097%=      5-min Rain = 0
KSP2 091325Z 26007KT 02/01 A3023 RMK A01 T00150011  RH  097%=      5-min Rain = 0
KSP2 091326Z 25007KT 02/01 A3023 RMK A01 T00150011  RH  097%=      5-min Rain = 0
KSP2 091327Z 26007KT 02/01 A3023 RMK A01 T00150011  RH  097%=      5-min Rain = 0
KSP2 091328Z 25007KT 02/01 A3023 RMK A01 T00150010  RH  097%=      5-min Rain = 0
KSP2 091329Z 25007KT 02/01 A3023 RMK A01 T00150010  RH  097%=      5-min Rain = 0
KSP2 091330Z 26007KT 02/01 A3023 RMK A01 T00150010  RH  097%=      5-min Rain = 0
KSP2 091331Z 26007KT 02/01 A3023 RMK A01 T00160011  RH  097%=      5-min Rain = 0
KSP2 091332Z 26007KT 02/01 A3023 RMK A01 T00160011  RH  097%=      5-min Rain = 0
KSP2 091333Z 26008KT 02/01 A3023 RMK A01 T00160011  RH  097%=      5-min Rain = 0
KSP2 091334Z 26008KT 02/01 A3023 RMK A01 T00170012  RH  097%=      5-min Rain = 0
KSP2 091335Z 26007KT 02/01 A3023 RMK A01 T00170012  RH  097%=      5-min Rain = 0
KSP2 091336Z 26007KT 02/01 A3023 RMK A01 T00170013  RH  097%=      5-min Rain = 0
KSP2 091337Z 26007KT 02/01 A3023 RMK A01 T00180013  RH  097%=      5-min Rain = 0
KSP2 091338Z 26007KT 02/01 A3023 RMK A01 T00180013  RH  097%=      5-min Rain = 0
KSP2 091339Z 26007KT 02/02 A3023 RMK A01 T00190015  RH  097%=      5-min Rain = 0
KSP2 091340Z 27007KT 02/02 A3023 RMK A01 T00200015  RH  097%=      5-min Rain = 0
KSP2 091341Z 26007KT 02/02 A3023 RMK A01 T00200015  RH  097%=      5-min Rain = 0
KSP2 091342Z 27008KT 02/02 A3023 RMK A01 T00210016  RH  097%=      5-min Rain = 0
KSP2 091343Z 27007KT 02/02 A3023 RMK A01 T00220017  RH  096%=      5-min Rain = 0
KSP2 091344Z 27007KT 02/02 A3023 RMK A01 T00230017  RH  096%=      5-min Rain = 0
KSP2 091345Z 27007KT 02/02 A3023 RMK A01 T00230018  RH  096%=      5-min Rain = 0
KSP2 091346Z 27007KT 02/02 A3023 RMK A01 T00240018  RH  096%=      5-min Rain = 0
KSP2 091347Z 27006KT 02/02 A3023 RMK A01 T00240019  RH  096%=      5-min Rain = 0
KSP2 091348Z 27007KT 03/02 A3023 RMK A01 T00250019  RH  096%=      5-min Rain = 0
KSP2 091349Z 27007KT 03/02 A3023 RMK A01 T00260020  RH  096%=      5-min Rain = 0
KSP2 091350Z 27006KT 03/02 A3023 RMK A01 T00260020  RH  096%=      5-min Rain = 0
KSP2 091351Z 27007KT 03/02 A3023 RMK A01 T00260020  RH  096%=      5-min Rain = 0
KSP2 091352Z 27007KT 03/02 A3023 RMK A01 T00270021  RH  096%=      5-min Rain = 0
KSP2 091353Z 27007KT 03/02 A3023 RMK A01 T00280021  RH  096%=      5-min Rain = 0
KSP2 091354Z 26007KT 03/02 A3023 RMK A01 T00280022  RH  096%=      5-min Rain = 0
KSP2 091355Z 27007KT 03/02 A3023 RMK A01 T00290022  RH  096%=      5-min Rain = 0
KSP2 091356Z 27007KT 03/02 A3023 RMK A01 T00290023  RH  096%=      5-min Rain = 0
KSP2 091357Z 26007KT 03/02 A3023 RMK A01 T00300023  RH  095%=      5-min Rain = 0
KSP2 091358Z 26007KT 03/02 A3023 RMK A01 T00300024  RH  095%=      5-min Rain = 0
KSP2 091359Z 26007KT 03/02 A3023 RMK A01 T00310024  RH  095%=      5-min Rain = 0
KSP2 091400Z 26007KT 03/03 A3023 RMK A01 T00320025  RH  095%=      5-min Rain = 0
KSP2 091401Z 26007KT 03/03 A3023 RMK A01 T00320025  RH  095%=      5-min Rain = 0
KSP2 091402Z 25007KT 03/03 A3023 RMK A01 T00330026  RH  095%=      5-min Rain = 0
KSP2 091403Z 25008KT 03/03 A3023 RMK A01 T00330026  RH  095%=      5-min Rain = 0
KSP2 091404Z 26008KT 03/03 A3023 RMK A01 T00340027  RH  095%=      5-min Rain = 0
KSP2 091405Z 25008KT 03/03 A3023 RMK A01 T00340027  RH  095%=      5-min Rain = 0
KSP2 091406Z 26009KT 04/03 A3023 RMK A01 T00350028  RH  095%=      5-min Rain = 0
KSP2 091407Z 26008KT 04/03 A3023 RMK A01 T00350028  RH  095%=      5-min Rain = 0
KSP2 091408Z 25007KT 04/03 A3023 RMK A01 T00360028  RH  095%=      5-min Rain = 0
KSP2 091409Z 26007KT 04/03 A3023 RMK A01 T00360029  RH  095%=      5-min Rain = 0
KSP2 091410Z 26007KT 04/03 A3024 RMK A01 T00370030  RH  095%=      5-min Rain = 0
KSP2 091411Z 26007KT 04/03 A3024 RMK A01 T00370029  RH  095%=      5-min Rain = 0
KSP2 091412Z 26006KT 04/03 A3024 RMK A01 T00380031  RH  095%=      5-min Rain = 0
KSP2 091413Z 26008KT 04/03 A3024 RMK A01 T00390031  RH  095%=      5-min Rain = 0
KSP2 091414Z 26008KT 04/03 A3024 RMK A01 T00390032  RH  095%=      5-min Rain = 0
KSP2 091415Z 26008KT 04/03 A3024 RMK A01 T00390032  RH  095%=      5-min Rain = 0
KSP2 091416Z 26008KT 04/03 A3024 RMK A01 T00400032  RH  095%=      5-min Rain = 0
KSP2 091417Z 26008KT 04/03 A3024 RMK A01 T00410033  RH  095%=      5-min Rain = 0
KSP2 091418Z 26008KT 04/03 A3024 RMK A01 T00420034  RH  095%=      5-min Rain = 0
KSP2 091419Z 27009KT 04/03 A3024 RMK A01 T00420034  RH  095%=      5-min Rain = 0
KSP2 091420Z 27009KT 04/04 A3024 RMK A01 T00430035  RH  094%=      5-min Rain = 0
KSP2 091421Z 27009KT 04/04 A3024 RMK A01 T00430035  RH  094%=      5-min Rain = 0
KSP2 091422Z 27008KT 04/04 A3024 RMK A01 T00440035  RH  094%=      5-min Rain = 0
KSP2 091423Z 27008KT 05/04 A3024 RMK A01 T00450036  RH  094%=      5-min Rain = 0
KSP2 091424Z 27009KT 05/04 A3024 RMK A01 T00460038  RH  094%=      5-min Rain = 0
KSP2 091425Z 27008KT 05/04 A3024 RMK A01 T00460037  RH  094%=      5-min Rain = 0
KSP2 091426Z 27007KT 05/04 A3024 RMK A01 T00470038  RH  094%=      5-min Rain = 0
KSP2 091427Z 26008KT 05/04 A3024 RMK A01 T00480039  RH  094%=      5-min Rain = 0
KSP2 091428Z 27008KT 05/04 A3024 RMK A01 T00490039  RH  093%=      5-min Rain = 0
KSP2 091429Z 27008KT 05/04 A3024 RMK A01 T00500040  RH  093%=      5-min Rain = 0
KSP2 091430Z 27008KT 05/04 A3024 RMK A01 T00510041  RH  093%=      5-min Rain = 0
KSP2 091431Z 26008KT 05/04 A3024 RMK A01 T00520042  RH  093%=      5-min Rain = 0
KSP2 091432Z 26008KT 05/04 A3024 RMK A01 T00520041  RH  093%=      5-min Rain = 0
KSP2 091433Z 26009KT 05/04 A3024 RMK A01 T00530041  RH  092%=      5-min Rain = 0
KSP2 091434Z 26009KT 05/04 A3024 RMK A01 T00520040  RH  092%=      5-min Rain = 0
KSP2 091435Z 26008KT 05/04 A3024 RMK A01 T00530041  RH  092%=      5-min Rain = 0
KSP2 091436Z 26009KT 05/04 A3024 RMK A01 T00540042  RH  092%=      5-min Rain = 0
KSP2 091437Z 27008KT 05/04 A3024 RMK A01 T00540042  RH  092%=      5-min Rain = 0
KSP2 091438Z 27009KT 06/04 A3024 RMK A01 T00550043  RH  092%=      5-min Rain = 0
KSP2 091439Z 27006KT 06/04 A3024 RMK A01 T00560043  RH  091%=      5-min Rain = 0
KSP2 091440Z 27007KT 06/05 A3024 RMK A01 T00570045  RH  092%=      5-min Rain = 0
KSP2 091441Z 27008KT 06/05 A3024 RMK A01 T00580045  RH  091%=      5-min Rain = 0
KSP2 091442Z 27008KT 06/04 A3024 RMK A01 T00590044  RH  091%=      5-min Rain = 0
KSP2 091443Z 27007KT 06/04 A3024 RMK A01 T00590044  RH  090%=      5-min Rain = 0
KSP2 091444Z 27006KT 06/05 A3024 RMK A01 T00600047  RH  091%=      5-min Rain = 0
KSP2 091445Z 26005KT 06/05 A3024 RMK A01 T00610047  RH  091%=      5-min Rain = 0
KSP2 091446Z 27007KT 06/05 A3024 RMK A01 T00620049  RH  091%=      5-min Rain = 0
KSP2 091447Z 27008KT 06/05 A3024 RMK A01 T00620046  RH  089%=      5-min Rain = 0
KSP2 091448Z 27007KT 06/05 A3024 RMK A01 T00620045  RH  089%=      5-min Rain = 0
KSP2 091449Z 28007KT 06/05 A3024 RMK A01 T00630047  RH  090%=      5-min Rain = 0
KSP2 091450Z 28007KT 06/05 A3024 RMK A01 T00640048  RH  090%=      5-min Rain = 0
KSP2 091451Z 27007KT 06/05 A3024 RMK A01 T00640047  RH  089%=      5-min Rain = 0
KSP2 091452Z 27006KT 07/05 A3024 RMK A01 T00650048  RH  089%=      5-min Rain = 0
KSP2 091453Z 27005KT 07/05 A3024 RMK A01 T00660050  RH  089%=      5-min Rain = 0
KSP2 091454Z 28006KT 07/05 A3024 RMK A01 T00670051  RH  090%=      5-min Rain = 0
KSP2 091455Z 28008KT 07/05 A3024 RMK A01 T00690053  RH  090%=      5-min Rain = 0
KSP2 091456Z 28007KT 07/05 A3024 RMK A01 T00700051  RH  088%=      5-min Rain = 0
KSP2 091457Z 28007KT 07/05 A3024 RMK A01 T00700051  RH  087%=      5-min Rain = 0
KSP2 091458Z 28007KT 07/05 A3024 RMK A01 T00710052  RH  088%=      5-min Rain = 0
KSP2 091459Z 28007KT 07/05 A3024 RMK A01 T00720052  RH  087%=      5-min Rain = 0
KSP2 091500Z 29007KT 07/05 A3024 RMK A01 T00730053  RH  087%=      5-min Rain = 0
KSP2 091501Z 28006KT 07/06 A3024 RMK A01 T00740056  RH  088%=      5-min Rain = 0
KSP2 091502Z 28007KT 08/05 A3024 RMK A01 T00760054  RH  086%=      5-min Rain = 0
KSP2 091503Z 28008KT 08/05 A3024 RMK A01 T00760052  RH  085%=      5-min Rain = 0
KSP2 091504Z 28007KT 08/05 A3024 RMK A01 T00760053  RH  085%=      5-min Rain = 0
KSP2 091505Z 27006KT 08/06 A3024 RMK A01 T00770055  RH  086%=      5-min Rain = 0
KSP2 091506Z 27005KT 08/06 A3024 RMK A01 T00780058  RH  087%=      5-min Rain = 0
KSP2 091507Z 27006KT 08/06 A3024 RMK A01 T00790059  RH  087%=      5-min Rain = 0
KSP2 091508Z 27007KT 08/06 A3024 RMK A01 T00800056  RH  085%=      5-min Rain = 0
KSP2 091509Z 27007KT 08/06 A3024 RMK A01 T00800057  RH  085%=      5-min Rain = 0
KSP2 091510Z 26006KT 08/06 A3024 RMK A01 T00810058  RH  085%=      5-min Rain = 0
KSP2 091511Z 26006KT 08/06 A3024 RMK A01 T00810058  RH  085%=      5-min Rain = 0
KSP2 091512Z 26007KT 08/06 A3024 RMK A01 T00830060  RH  086%=      5-min Rain = 0
KSP2 091513Z 26007KT 08/06 A3024 RMK A01 T00840060  RH  085%=      5-min Rain = 0
KSP2 091514Z 26008KT 08/06 A3024 RMK A01 T00840057  RH  083%=      5-min Rain = 0
KSP2 091515Z 27006KT 08/06 A3024 RMK A01 T00840058  RH  084%=      5-min Rain = 0
KSP2 091516Z 27007KT 09/06 A3024 RMK A01 T00850061  RH  085%=      5-min Rain = 0
KSP2 091517Z 27007KT 09/06 A3024 RMK A01 T00860060  RH  084%=      5-min Rain = 0
KSP2 091518Z 27007KT 09/06 A3024 RMK A01 T00870061  RH  084%=      5-min Rain = 0
KSP2 091519Z 26006KT 09/06 A3024 RMK A01 T00880061  RH  083%=      5-min Rain = 0
KSP2 091520Z 26006KT 09/06 A3024 RMK A01 T00880063  RH  084%=      5-min Rain = 0
KSP2 091521Z 27007KT 09/06 A3024 RMK A01 T00900063  RH  083%=      5-min Rain = 0
KSP2 091522Z 27007KT 09/06 A3024 RMK A01 T00910062  RH  082%=      5-min Rain = 0
KSP2 091523Z 27006KT 09/06 A3024 RMK A01 T00910062  RH  082%=      5-min Rain = 0
KSP2 091524Z 27006KT 09/07 A3024 RMK A01 T00930066  RH  083%=      5-min Rain = 0
KSP2 091525Z 27007KT 09/07 A3024 RMK A01 T00940066  RH  082%=      5-min Rain = 0
KSP2 091526Z 26006KT 10/07 A3024 RMK A01 T00950065  RH  082%=      5-min Rain = 0
KSP2 091527Z 27006KT 10/07 A3024 RMK A01 T00950065  RH  081%=      5-min Rain = 0
KSP2 091528Z 27006KT 10/07 A3024 RMK A01 T00960067  RH  082%=      5-min Rain = 0
KSP2 091529Z 27006KT 10/07 A3024 RMK A01 T00990070  RH  083%=      5-min Rain = 0
KSP2 091530Z 27006KT 10/07 A3024 RMK A01 T01000072  RH  082%=      5-min Rain = 0
KSP2 091531Z 26007KT 10/07 A3024 RMK A01 T01010068  RH  080%=      5-min Rain = 0
KSP2 091532Z 26007KT 10/07 A3024 RMK A01 T01010068  RH  080%=      5-min Rain = 0
KSP2 091533Z 26007KT 10/07 A3024 RMK A01 T01000065  RH  079%=      5-min Rain = 0
KSP2 091534Z 27007KT 10/07 A3024 RMK A01 T01000066  RH  080%=      5-min Rain = 0
KSP2 091535Z 26008KT 10/07 A3024 RMK A01 T01000067  RH  080%=      5-min Rain = 0
KSP2 091536Z 26007KT 10/07 A3024 RMK A01 T01010066  RH  079%=      5-min Rain = 0
KSP2 091537Z 26008KT 10/07 A3024 RMK A01 T01010065  RH  078%=      5-min Rain = 0
KSP2 091538Z 26007KT 10/07 A3024 RMK A01 T01010065  RH  078%=      5-min Rain = 0
KSP2 091539Z 26007KT 10/07 A3024 RMK A01 T01020068  RH  079%=      5-min Rain = 0
KSP2 091540Z 26007KT 10/07 A3024 RMK A01 T01040069  RH  079%=      5-min Rain = 0
KSP2 091541Z 26008KT 11/07 A3024 RMK A01 T01050068  RH  078%=      5-min Rain = 0
KSP2 091542Z 26008KT 11/07 A3024 RMK A01 T01050065  RH  076%=      5-min Rain = 0
KSP2 091543Z 27007KT 11/07 A3024 RMK A01 T01050067  RH  077%=      5-min Rain = 0
KSP2 091544Z 27006KT 11/07 A3024 RMK A01 T01070072  RH  079%=      5-min Rain = 0
KSP2 091545Z 27006KT 11/07 A3024 RMK A01 T01100072  RH  078%=      5-min Rain = 0
KSP2 091546Z 28008KT 11/07 A3024 RMK A01 T01100068  RH  075%=      5-min Rain = 0
KSP2 091547Z 28007KT 11/07 A3024 RMK A01 T01100066  RH  074%=      5-min Rain = 0
KSP2 091548Z 28007KT 11/07 A3024 RMK A01 T01090067  RH  075%=      5-min Rain = 0
KSP2 091549Z 28006KT 11/07 A3024 RMK A01 T01100070  RH  076%=      5-min Rain = 0
KSP2 091550Z 27006KT 11/07 A3024 RMK A01 T01120073  RH  077%=      5-min Rain = 0
KSP2 091551Z 27006KT 11/07 A3024 RMK A01 T01140073  RH  076%=      5-min Rain = 0
KSP2 091552Z 27007KT 12/07 A3024 RMK A01 T01150071  RH  074%=      5-min Rain = 0
KSP2 091553Z 27007KT 12/07 A3024 RMK A01 T01150071  RH  074%=      5-min Rain = 0
KSP2 091554Z 27008KT 12/07 A3025 RMK A01 T01150070  RH  074%=      5-min Rain = 0
KSP2 091555Z 27007KT 12/07 A3025 RMK A01 T01150070  RH  074%=      5-min Rain = 0
KSP2 091556Z 27007KT 12/07 A3024 RMK A01 T01150070  RH  074%=      5-min Rain = 0
KSP2 091557Z 28008KT 12/07 A3024 RMK A01 T01150068  RH  073%=      5-min Rain = 0
KSP2 091558Z 28008KT 12/07 A3024 RMK A01 T01150070  RH  074%=      5-min Rain = 0
KSP2 091559Z 28007KT 12/07 A3024 RMK A01 T01170072  RH  074%=      5-min Rain = 0
KSP2 091600Z 28007KT 12/07 A3024 RMK A01 T01170070  RH  073%=      5-min Rain = 0
KSP2 091601Z 28007KT 12/07 A3024 RMK A01 T01180074  RH  074%=      5-min Rain = 0
KSP2 091602Z 27005KT 12/08 A3024 RMK A01 T01200076  RH  075%=      5-min Rain = 0
KSP2 091603Z 27006KT 12/08 A3024 RMK A01 T01220078  RH  074%=      5-min Rain = 0
KSP2 091604Z 28007KT 12/08 A3024 RMK A01 T01230076  RH  073%=      5-min Rain = 0
KSP2 091605Z 27006KT 12/08 A3024 RMK A01 T01240076  RH  072%=      5-min Rain = 0
KSP2 091606Z 26007KT 13/08 A3024 RMK A01 T01250077  RH  073%=      5-min Rain = 0
KSP2 091607Z 26007KT 13/08 A3024 RMK A01 T01260076  RH  072%=      5-min Rain = 0
KSP2 091608Z 25007KT 13/08 A3024 RMK A01 T01260076  RH  072%=      5-min Rain = 0
KSP2 091609Z 26007KT 13/07 A3024 RMK A01 T01260074  RH  070%=      5-min Rain = 0
KSP2 091610Z 25006KT 13/07 A3024 RMK A01 T01260073  RH  070%=      5-min Rain = 0
KSP2 091611Z 26007KT 13/07 A3024 RMK A01 T01250073  RH  071%=      5-min Rain = 0
KSP2 091612Z 25007KT 13/07 A3024 RMK A01 T01250074  RH  071%=      5-min Rain = 0
KSP2 091613Z 25007KT 13/08 A3024 RMK A01 T01270075  RH  071%=      5-min Rain = 0
KSP2 091614Z 26007KT 13/07 A3024 RMK A01 T01270073  RH  070%=      5-min Rain = 0
KSP2 091615Z 26006KT 13/08 A3024 RMK A01 T01280075  RH  070%=      5-min Rain = 0
KSP2 091616Z 26006KT 13/08 A3024 RMK A01 T01300077  RH  070%=      5-min Rain = 0
KSP2 091617Z 26008KT 13/08 A3024 RMK A01 T01320076  RH  069%=      5-min Rain = 0
KSP2 091618Z 25007KT 13/08 A3024 RMK A01 T01330076  RH  068%=      5-min Rain = 0
KSP2 091619Z 26007KT 14/08 A3024 RMK A01 T01350079  RH  069%=      5-min Rain = 0
KSP2 091620Z 26006KT 14/08 A3024 RMK A01 T01360081  RH  069%=      5-min Rain = 0
KSP2 091621Z 27006KT 14/08 A3024 RMK A01 T01370079  RH  068%=      5-min Rain = 0
KSP2 091622Z 27004KT 14/08 A3024 RMK A01 T01360082  RH  070%=      5-min Rain = 0
KSP2 091623Z 26004KT 14/08 A3024 RMK A01 T01370083  RH  070%=      5-min Rain = 0
KSP2 091624Z 26004KT 14/09 A3024 RMK A01 T01410088  RH  070%=      5-min Rain = 0
KSP2 091625Z 26004KT 15/09 A3024 RMK A01 T01460087  RH  068%=      5-min Rain = 0
KSP2 091626Z 26005KT 15/08 A3024 RMK A01 T01470082  RH  065%=      5-min Rain = 0
KSP2 091627Z 26005KT 15/08 A3024 RMK A01 T01450081  RH  065%=      5-min Rain = 0
KSP2 091628Z 27005KT 15/08 A3024 RMK A01 T01450082  RH  066%=      5-min Rain = 0
KSP2 091629Z 26005KT 15/08 A3024 RMK A01 T01450079  RH  065%=      5-min Rain = 0
KSP2 091630Z 26006KT 15/08 A3024 RMK A01 T01450080  RH  065%=      5-min Rain = 0
KSP2 091631Z 25005KT 15/08 A3024 RMK A01 T01450078  RH  064%=      5-min Rain = 0
KSP2 091632Z 25006KT 15/08 A3024 RMK A01 T01450081  RH  065%=      5-min Rain = 0
KSP2 091633Z 25006KT 15/08 A3024 RMK A01 T01470080  RH  064%=      5-min Rain = 0
KSP2 091634Z 26005KT 15/08 A3024 RMK A01 T01480081  RH  064%=      5-min Rain = 0
KSP2 091635Z 25006KT 15/08 A3024 RMK A01 T01490081  RH  064%=      5-min Rain = 0
KSP2 091636Z 25005KT 15/08 A3024 RMK A01 T01500079  RH  062%=      5-min Rain = 0
KSP2 091637Z 26006KT 15/08 A3024 RMK A01 T01500079  RH  062%=      5-min Rain = 0
KSP2 091638Z 27006KT 15/08 A3024 RMK A01 T01500078  RH  062%=      5-min Rain = 0
KSP2 091639Z 27006KT 15/08 A3024 RMK A01 T01520080  RH  062%=      5-min Rain = 0
KSP2 091640Z 27006KT 15/08 A3024 RMK A01 T01540079  RH  061%=      5-min Rain = 0
KSP2 091641Z 26005KT 15/08 A3024 RMK A01 T01540079  RH  061%=      5-min Rain = 0
KSP2 091642Z 26005KT 16/08 A3024 RMK A01 T01550080  RH  061%=      5-min Rain = 0
KSP2 091643Z 25007KT 16/08 A3024 RMK A01 T01570081  RH  060%=      5-min Rain = 0
KSP2 091644Z 26007KT 16/08 A3024 RMK A01 T01580076  RH  058%=      5-min Rain = 0
KSP2 091645Z 26007KT 16/08 A3024 RMK A01 T01560076  RH  059%=      5-min Rain = 0
KSP2 091646Z 27006KT 16/08 A3024 RMK A01 T01560075  RH  059%=      5-min Rain = 0
KSP2 091647Z 26006KT 16/08 A3024 RMK A01 T01580076  RH  058%=      5-min Rain = 0
KSP2 091648Z 27006KT 16/08 A3024 RMK A01 T01600078  RH  058%=      5-min Rain = 0
KSP2 091649Z 26006KT 16/08 A3024 RMK A01 T01600078  RH  058%=      5-min Rain = 0
KSP2 091650Z 26007KT 16/08 A3024 RMK A01 T01620076  RH  057%=      5-min Rain = 0
KSP2 091651Z 27005KT 16/08 A3024 RMK A01 T01640080  RH  057%=      5-min Rain = 0
KSP2 091652Z 27007KT 17/08 A3024 RMK A01 T01670079  RH  056%=      5-min Rain = 0
KSP2 091653Z 25006KT 17/08 A3024 RMK A01 T01680076  RH  055%=      5-min Rain = 0
KSP2 091654Z 26007KT 17/08 A3024 RMK A01 T01690078  RH  055%=      5-min Rain = 0
KSP2 091655Z 27007KT 17/07 A3024 RMK A01 T01700074  RH  053%=      5-min Rain = 0
KSP2 091656Z 26009KT 17/07 A3024 RMK A01 T01700074  RH  053%=      5-min Rain = 0
KSP2 091657Z 26008KT 17/07 A3024 RMK A01 T01690074  RH  053%=      5-min Rain = 0
KSP2 091658Z 26008KT 17/07 A3024 RMK A01 T01680072  RH  053%=      5-min Rain = 0
KSP2 091659Z 25008KT 17/07 A3024 RMK A01 T01680072  RH  053%=      5-min Rain = 0
KSP2 091700Z 25007KT 17/07 A3024 RMK A01 T01690073  RH  053%=      5-min Rain = 0
KSP2 091701Z 25006KT 17/08 A3024 RMK A01 T01700075  RH  053%=      5-min Rain = 0
KSP2 091702Z 25007KT 17/08 A3024 RMK A01 T01710078  RH  054%=      5-min Rain = 0
KSP2 091703Z 24007KT 17/08 A3024 RMK A01 T01730077  RH  053%=      5-min Rain = 0
KSP2 091704Z 24008KT 17/08 A3024 RMK A01 T01740077  RH  053%=      5-min Rain = 0
KSP2 091705Z 24008KT 17/08 A3024 RMK A01 T01740075  RH  052%=      5-min Rain = 0
KSP2 091706Z 23007KT 17/07 A3024 RMK A01 T01740073  RH  051%=      5-min Rain = 0
KSP2 091707Z 24008KT 17/07 A3024 RMK A01 T01740073  RH  051%=      5-min Rain = 0
KSP2 091708Z 25009KT 18/07 A3023 RMK A01 T01750073  RH  051%=      5-min Rain = 0
KSP2 091709Z 25006KT 18/07 A3023 RMK A01 T01750073  RH  051%=      5-min Rain = 0
KSP2 091710Z 24008KT 18/08 A3023 RMK A01 T01780075  RH  051%=      5-min Rain = 0
KSP2 091711Z 25008KT 18/07 A3023 RMK A01 T01790073  RH  050%=      5-min Rain = 0
KSP2 091712Z 25008KT 18/07 A3023 RMK A01 T01800072  RH  049%=      5-min Rain = 0
KSP2 091713Z 23009KT 18/07 A3023 RMK A01 T01800073  RH  050%=      5-min Rain = 0
KSP2 091714Z 24008KT 18/07 A3023 RMK A01 T01810070  RH  048%=      5-min Rain = 0
KSP2 091715Z 24009KT 18/07 A3023 RMK A01 T01810073  RH  049%=      5-min Rain = 0
KSP2 091716Z 24009KT 18/07 A3023 RMK A01 T01810070  RH  048%=      5-min Rain = 0
KSP2 091717Z 23011KT 18/07 A3023 RMK A01 T01820066  RH  047%=      5-min Rain = 0
KSP2 091718Z 24010KT 18/06 A3023 RMK A01 T01820061  RH  045%=      5-min Rain = 0
KSP2 091719Z 25009KT 18/07 A3023 RMK A01 T01820067  RH  047%=      5-min Rain = 0
KSP2 091720Z 26010KT 18/06 A3023 RMK A01 T01830061  RH  045%=      5-min Rain = 0
KSP2 091721Z 26008KT 18/06 A3023 RMK A01 T01830063  RH  045%=      5-min Rain = 0
KSP2 091722Z 26008KT 18/06 A3023 RMK A01 T01830063  RH  046%=      5-min Rain = 0
KSP2 091723Z 24009KT 18/07 A3023 RMK A01 T01840065  RH  046%=      5-min Rain = 0
KSP2 091724Z 26009KT 19/07 A3023 RMK A01 T01860066  RH  045%=      5-min Rain = 0
KSP2 091725Z 25009KT 19/06 A3023 RMK A01 T01870061  RH  044%=      5-min Rain = 0
KSP2 091726Z 24009KT 19/06 A3023 RMK A01 T01850063  RH  045%=      5-min Rain = 0
KSP2 091727Z 23007KT 19/06 A3023 RMK A01 T01860064  RH  045%=      5-min Rain = 0
KSP2 091728Z 24008KT 19/07 A3023 RMK A01 T01870066  RH  045%=      5-min Rain = 0
KSP2 091729Z 24008KT 19/07 A3023 RMK A01 T01890065  RH  045%=      5-min Rain = 0
KSP2 091730Z 25009KT 19/06 A3023 RMK A01 T01890064  RH  044%=      5-min Rain = 0
KSP2 091731Z 25010KT 19/06 A3023 RMK A01 T01890063  RH  044%=      5-min Rain = 0
KSP2 091732Z 25008KT 19/06 A3022 RMK A01 T01880064  RH  044%=      5-min Rain = 0
KSP2 091733Z 24009KT 19/07 A3022 RMK A01 T01890066  RH  045%=      5-min Rain = 0
KSP2 091734Z 24011KT 19/06 A3022 RMK A01 T01920061  RH  042%=      5-min Rain = 0
KSP2 091735Z 25009KT 19/06 A3022 RMK A01 T01900056  RH  041%=      5-min Rain = 0
KSP2 091736Z 24007KT 19/06 A3022 RMK A01 T01910061  RH  042%=      5-min Rain = 0
KSP2 091737Z 24009KT 19/06 A3022 RMK A01 T01940061  RH  042%=      5-min Rain = 0
KSP2 091738Z 25011KT 19/06 A3022 RMK A01 T01940060  RH  041%=      5-min Rain = 0
KSP2 091739Z 24010KT 19/06 A3022 RMK A01 T01920055  RH  041%=      5-min Rain = 0
KSP2 091740Z 24008KT 19/06 A3022 RMK A01 T01890059  RH  042%=      5-min Rain = 0
KSP2 091741Z 24010KT 19/06 A3022 RMK A01 T01920061  RH  042%=      5-min Rain = 0
KSP2 091742Z 25010KT 19/06 A3022 RMK A01 T01930057  RH  041%=      5-min Rain = 0
KSP2 091743Z 24009KT 19/06 A3022 RMK A01 T01940055  RH  040%=      5-min Rain = 0
KSP2 091744Z 25009KT 20/05 A3022 RMK A01 T01950054  RH  040%=      5-min Rain = 0
KSP2 091745Z 24011KT 20/05 A3022 RMK A01 T01960054  RH  039%=      5-min Rain = 0
KSP2 091746Z 25010KT 20/05 A3022 RMK A01 T01970052  RH  039%=      5-min Rain = 0
KSP2 091747Z 25009KT 20/05 A3022 RMK A01 T01970051  RH  038%=      5-min Rain = 0
KSP2 091748Z 25008KT 20/05 A3022 RMK A01 T01960053  RH  039%=      5-min Rain = 0
KSP2 091749Z 25010KT 20/06 A3022 RMK A01 T01970056  RH  040%=      5-min Rain = 0
KSP2 091750Z 26010KT 20/05 A3022 RMK A01 T01970052  RH  039%=      5-min Rain = 0
KSP2 091751Z 25008KT 20/06 A3022 RMK A01 T01970056  RH  040%=      5-min Rain = 0
KSP2 091752Z 25009KT 20/06 A3022 RMK A01 T01990056  RH  039%=      5-min Rain = 0
KSP2 091753Z 25009KT 20/06 A3021 RMK A01 T02010058  RH  039%=      5-min Rain = 0
KSP2 091754Z 25010KT 20/06 A3021 RMK A01 T02000059  RH  040%=      5-min Rain = 0
KSP2 091755Z 23008KT 20/06 A3021 RMK A01 T02000061  RH  040%=      5-min Rain = 0
KSP2 091756Z 23010KT 20/06 A3021 RMK A01 T01990060  RH  040%=      5-min Rain = 0
KSP2 091757Z 24008KT 20/06 A3021 RMK A01 T01980058  RH  040%=      5-min Rain = 0
KSP2 091758Z 22010KT 20/06 A3021 RMK A01 T01970057  RH  040%=      5-min Rain = 0
KSP2 091759Z 23010KT 20/05 A3021 RMK A01 T02000052  RH  038%=      5-min Rain = 0
KSP2 091800Z 23011KT 20/05 A3021 RMK A01 T02020051  RH  037%=      5-min Rain = 0
KSP2 091801Z 23012KT 20/05 A3021 RMK A01 T02020045  RH  036%=      5-min Rain = 0
KSP2 091802Z 23011KT 20/05 A3021 RMK A01 T02010045  RH  036%=      5-min Rain = 0
KSP2 091803Z 24009KT 20/05 A3021 RMK A01 T02020048  RH  036%=      5-min Rain = 0
KSP2 091804Z 24011KT 20/05 A3021 RMK A01 T02040046  RH  035%=      5-min Rain = 0
KSP2 091805Z 23011KT 20/05 A3021 RMK A01 T02030045  RH  035%=      5-min Rain = 0
KSP2 091806Z 24011KT 20/05 A3021 RMK A01 T02010046  RH  036%=      5-min Rain = 0
KSP2 091807Z 24009KT 20/05 A3021 RMK A01 T02000048  RH  037%=      5-min Rain = 0
KSP2 091808Z 23012KT 20/05 A3021 RMK A01 T02000050  RH  037%=      5-min Rain = 0
KSP2 091809Z 22011KT 20/05 A3021 RMK A01 T02010046  RH  036%=      5-min Rain = 0
KSP2 091810Z 23010KT 20/05 A3021 RMK A01 T02010049  RH  037%=      5-min Rain = 0
KSP2 091811Z 25011KT 20/05 A3021 RMK A01 T02020048  RH  036%=      5-min Rain = 0
KSP2 091812Z 24010KT 20/05 A3021 RMK A01 T02030047  RH  036%=      5-min Rain = 0
KSP2 091813Z 23009KT 20/05 A302 RMK A01 T02040048  RH  036%=      5-min Rain = 0
KSP2 091814Z 24009KT 20/05 A302 RMK A01 T02040048  RH  036%=      5-min Rain = 0
KSP2 091815Z 24009KT 21/05 A302 RMK A01 T02050047  RH  035%=      5-min Rain = 0
KSP2 091816Z 25009KT 21/05 A302 RMK A01 T02050048  RH  036%=      5-min Rain = 0
KSP2 091817Z 25007KT 21/05 A302 RMK A01 T02070053  RH  036%=      5-min Rain = 0
KSP2 091818Z 24009KT 21/05 A302 RMK A01 T02080051  RH  036%=      5-min Rain = 0
KSP2 091819Z 24008KT 21/05 A302 RMK A01 T02100054  RH  036%=      5-min Rain = 0
KSP2 091820Z 24009KT 21/05 A302 RMK A01 T02110051  RH  035%=      5-min Rain = 0
KSP2 091821Z 23009KT 21/05 A302 RMK A01 T02120050  RH  035%=      5-min Rain = 0
KSP2 091822Z 22009KT 21/05 A302 RMK A01 T02120048  RH  034%=      5-min Rain = 0
KSP2 091823Z 23012KT 21/05 A302 RMK A01 T02120046  RH  034%=      5-min Rain = 0
KSP2 091824Z 24010KT 21/04 A302 RMK A01 T02100044  RH  034%=      5-min Rain = 0
KSP2 091825Z 25008KT 21/05 A302 RMK A01 T02080045  RH  034%=      5-min Rain = 0
KSP2 091826Z 23010KT 21/05 A302 RMK A01 T02090049  RH  035%=      5-min Rain = 0
KSP2 091827Z 24010KT 21/05 A302 RMK A01 T02100048  RH  035%=      5-min Rain = 0
KSP2 091828Z 25009KT 21/05 A302 RMK A01 T02110049  RH  035%=      5-min Rain = 0
KSP2 091829Z 25011KT 21/05 A302 RMK A01 T02120048  RH  034%=      5-min Rain = 0
KSP2 091830Z 23010KT 21/04 A3019 RMK A01 T02130044  RH  033%=      5-min Rain = 0
KSP2 091831Z 23010KT 21/04 A3019 RMK A01 T02120043  RH  033%=      5-min Rain = 0
KSP2 091832Z 22011KT 21/04 A3019 RMK A01 T02110042  RH  033%=      5-min Rain = 0
KSP2 091833Z 24008KT 21/04 A3019 RMK A01 T02100042  RH  033%=      5-min Rain = 0
KSP2 091834Z 24009KT 21/05 A3019 RMK A01 T02120047  RH  034%=      5-min Rain = 0
KSP2 091835Z 23010KT 21/04 A3019 RMK A01 T02140044  RH  033%=      5-min Rain = 0
KSP2 091836Z 24009KT 21/05 A3019 RMK A01 T02140045  RH  033%=      5-min Rain = 0
KSP2 091837Z 24009KT 21/05 A3019 RMK A01 T02140046  RH  033%=      5-min Rain = 0
KSP2 091838Z 24008KT 22/05 A3019 RMK A01 T02150047  RH  033%=      5-min Rain = 0
KSP2 091839Z 23009KT 22/05 A3019 RMK A01 T02150048  RH  034%=      5-min Rain = 0
KSP2 091840Z 23010KT 22/05 A3019 RMK A01 T02150051  RH  034%=      5-min Rain = 0
KSP2 091841Z 24010KT 22/05 A3019 RMK A01 T02150052  RH  034%=      5-min Rain = 0
KSP2 091842Z 21009KT 22/05 A3019 RMK A01 T02150052  RH  035%=      5-min Rain = 0
KSP2 091843Z 22009KT 22/06 A3019 RMK A01 T02160055  RH  035%=      5-min Rain = 0
KSP2 091844Z 23008KT 22/06 A3019 RMK A01 T02170055  RH  035%=      5-min Rain = 0
KSP2 091845Z 24010KT 22/05 A3018 RMK A01 T02170048  RH  033%=      5-min Rain = 0
KSP2 091846Z 23012KT 22/04 A3018 RMK A01 T02170043  RH  032%=      5-min Rain = 0
KSP2 091847Z 23012KT 22/04 A3018 RMK A01 T02160040  RH  031%=      5-min Rain = 0
KSP2 091848Z 24010KT 22/04 A3018 RMK A01 T02160040  RH  032%=      5-min Rain = 0
KSP2 091849Z 24012KT 22/04 A3018 RMK A01 T02160038  RH  031%=      5-min Rain = 0
KSP2 091850Z 24010KT 22/04 A3018 RMK A01 T02160037  RH  031%=      5-min Rain = 0
KSP2 091851Z 23011KT 22/04 A3018 RMK A01 T02160039  RH  031%=      5-min Rain = 0
KSP2 091852Z 24010KT 22/04 A3018 RMK A01 T02170043  RH  032%=      5-min Rain = 0
KSP2 091853Z 23010KT 22/05 A3018 RMK A01 T02180045  RH  032%=      5-min Rain = 0
KSP2 091854Z 23010KT 22/05 A3018 RMK A01 T02190049  RH  033%=      5-min Rain = 0
KSP2 091855Z 23009KT 22/05 A3018 RMK A01 T02180046  RH  033%=      5-min Rain = 0
KSP2 091856Z 22009KT 22/05 A3018 RMK A01 T02170049  RH  033%=      5-min Rain = 0
KSP2 091857Z 22011KT 22/05 A3018 RMK A01 T02170051  RH  034%=      5-min Rain = 0
KSP2 091858Z 23008KT 22/05 A3018 RMK A01 T02170053  RH  034%=      5-min Rain = 0
KSP2 091859Z 22010KT 22/05 A3017 RMK A01 T02180051  RH  034%=      5-min Rain = 0
KSP2 091900Z 22013KT 22/05 A3018 RMK A01 T02190049  RH  033%=      5-min Rain = 0
KSP2 091901Z 23011KT 22/05 A3018 RMK A01 T02170046  RH  033%=      5-min Rain = 0
KSP2 091902Z 22010KT 22/05 A3017 RMK A01 T02170046  RH  033%=      5-min Rain = 0
KSP2 091903Z 23010KT 22/05 A3017 RMK A01 T02170047  RH  033%=      5-min Rain = 0
KSP2 091904Z 23007KT 22/05 A3017 RMK A01 T02170049  RH  033%=      5-min Rain = 0
KSP2 091905Z 23007KT 22/05 A3017 RMK A01 T02190050  RH  033%=      5-min Rain = 0
KSP2 091906Z 24007KT 22/05 A3017 RMK A01 T02210053  RH  034%=      5-min Rain = 0
KSP2 091907Z 21010KT 22/05 A3017 RMK A01 T02240051  RH  033%=      5-min Rain = 0
KSP2 091908Z 21010KT 23/05 A3017 RMK A01 T02250045  RH  031%=      5-min Rain = 0
KSP2 091909Z 21011KT 23/04 A3017 RMK A01 T02250039  RH  030%=      5-min Rain = 0
KSP2 091910Z 21012G17KT 22/04 A3017 RMK A01 T02240040  RH  030%=      5-min Rain = 0
KSP2 091911Z 22012G17KT 22/04 A3017 RMK A01 T02230044  RH  031%=      5-min Rain = 0
KSP2 091912Z 23012KT 22/04 A3017 RMK A01 T02230042  RH  031%=      5-min Rain = 0
KSP2 091913Z 23012KT 22/04 A3017 RMK A01 T02210040  RH  031%=      5-min Rain = 0
KSP2 091914Z 23008KT 22/04 A3017 RMK A01 T02190041  RH  031%=      5-min Rain = 0
KSP2 091915Z 23009KT 22/04 A3017 RMK A01 T02190041  RH  031%=      5-min Rain = 0
KSP2 091916Z 22008KT 22/04 A3017 RMK A01 T02220044  RH  031%=      5-min Rain = 0
KSP2 091917Z 23010KT 23/04 A3017 RMK A01 T02260044  RH  031%=      5-min Rain = 0
KSP2 091918Z 21009KT 23/04 A3017 RMK A01 T02250042  RH  030%=      5-min Rain = 0
KSP2 091919Z 22010KT 22/04 A3017 RMK A01 T02240042  RH  030%=      5-min Rain = 0
KSP2 091920Z 25011KT 23/04 A3017 RMK A01 T02250039  RH  030%=      5-min Rain = 0
KSP2 091921Z 25010KT 22/04 A3016 RMK A01 T02230041  RH  030%=      5-min Rain = 0
KSP2 091922Z 23009KT 22/05 A3016 RMK A01 T02230046  RH  031%=      5-min Rain = 0
KSP2 091923Z 21010KT 23/05 A3016 RMK A01 T02260045  RH  031%=      5-min Rain = 0
KSP2 091924Z 22008KT 23/04 A3016 RMK A01 T02270042  RH  030%=      5-min Rain = 0
KSP2 091925Z 24009KT 23/04 A3016 RMK A01 T02270042  RH  030%=      5-min Rain = 0
KSP2 091926Z 24012KT 23/04 A3016 RMK A01 T02270039  RH  029%=      5-min Rain = 0
KSP2 091927Z 24010G15KT 22/04 A3016 RMK A01 T02240038  RH  030%=      5-min Rain = 0
KSP2 091928Z 23009KT 22/04 A3016 RMK A01 T02230041  RH  031%=      5-min Rain = 0
KSP2 091929Z 23009KT 23/04 A3016 RMK A01 T02250044  RH  031%=      5-min Rain = 0
KSP2 091930Z 23010KT 23/04 A3016 RMK A01 T02270040  RH  029%=      5-min Rain = 0
KSP2 091931Z 24012KT 23/04 A3016 RMK A01 T02270038  RH  029%=      5-min Rain = 0
KSP2 091932Z 25010KT 23/04 A3016 RMK A01 T02250038  RH  029%=      5-min Rain = 0
KSP2 091933Z 23009G14KT 22/04 A3016 RMK A01 T02230040  RH  030%=      5-min Rain = 0
KSP2 091934Z 22011KT 23/04 A3016 RMK A01 T02250036  RH  029%=      5-min Rain = 0
KSP2 091935Z 23012KT 23/03 A3015 RMK A01 T02250034  RH  029%=      5-min Rain = 0
KSP2 091936Z 23010KT 23/04 A3015 RMK A01 T02250037  RH  029%=      5-min Rain = 0
KSP2 091937Z 23012KT 23/03 A3016 RMK A01 T02270031  RH  028%=      5-min Rain = 0
KSP2 091938Z 24012KT 23/03 A3015 RMK A01 T02260025  RH  027%=      5-min Rain = 0
KSP2 091939Z 25013KT 22/03 A3015 RMK A01 T02240025  RH  027%=      5-min Rain = 0
KSP2 091940Z 24014KT 22/02 A3015 RMK A01 T02240024  RH  027%=      5-min Rain = 0
KSP2 091941Z 24012KT 22/03 A3015 RMK A01 T02230026  RH  027%=      5-min Rain = 0
KSP2 091942Z 24012KT 22/03 A3015 RMK A01 T02230025  RH  027%=      5-min Rain = 0
KSP2 091943Z 24011KT 22/02 A3015 RMK A01 T02230024  RH  027%=      5-min Rain = 0
KSP2 091944Z 24011KT 22/03 A3015 RMK A01 T02230027  RH  028%=      5-min Rain = 0
KSP2 091945Z 24013KT 22/03 A3015 RMK A01 T02230027  RH  028%=      5-min Rain = 0
KSP2 091946Z 22012KT 22/03 A3015 RMK A01 T02240026  RH  027%=      5-min Rain = 0
KSP2 091947Z 22012KT 22/03 A3015 RMK A01 T02240025  RH  027%=      5-min Rain = 0
KSP2 091948Z 22012KT 23/03 A3015 RMK A01 T02250025  RH  027%=      5-min Rain = 0
KSP2 091949Z 23012KT 22/02 A3015 RMK A01 T02240021  RH  026%=      5-min Rain = 0
KSP2 091950Z 23015KT 22/02 A3015 RMK A01 T02240019  RH  026%=      5-min Rain = 0
KSP2 091951Z 23015KT 22/02 A3015 RMK A01 T02230016  RH  026%=      5-min Rain = 0
KSP2 091952Z 24012KT 22/01 A3015 RMK A01 T02210014  RH  025%=      5-min Rain = 0
KSP2 091953Z 23012KT 22/02 A3015 RMK A01 T02200020  RH  027%=      5-min Rain = 0
KSP2 091954Z 25013KT 22/03 A3015 RMK A01 T02210025  RH  028%=      5-min Rain = 0
KSP2 091955Z 24013KT 22/03 A3015 RMK A01 T02230026  RH  027%=      5-min Rain = 0
KSP2 091956Z 24014KT 22/02 A3015 RMK A01 T02230024  RH  027%=      5-min Rain = 0
KSP2 091957Z 24013KT 22/02 A3015 RMK A01 T02230024  RH  027%=      5-min Rain = 0
KSP2 091958Z 23011KT 22/02 A3015 RMK A01 T02240022  RH  026%=      5-min Rain = 0
KSP2 091959Z 23008KT 22/03 A3015 RMK A01 T02230025  RH  027%=      5-min Rain = 0
KSP2 092000Z 24007G14KT 23/03 A3015 RMK A01 T02260028  RH  027%=      5-min Rain = 0
KSP2 092001Z 24012KT 23/03 A3015 RMK A01 T02300028  RH  027%=      5-min Rain = 0
KSP2 092002Z 23012KT 23/03 A3015 RMK A01 T02280025  RH  026%=      5-min Rain = 0
KSP2 092003Z 23010KT 23/03 A3015 RMK A01 T02250027  RH  027%=      5-min Rain = 0
KSP2 092004Z 24010KT 22/03 A3014 RMK A01 T02240027  RH  028%=      5-min Rain = 0
KSP2 092005Z 24013KT 22/03 A3014 RMK A01 T02240025  RH  027%=      5-min Rain = 0
KSP2 092006Z 24011KT 23/03 A3014 RMK A01 T02250025  RH  027%=      5-min Rain = 0
KSP2 092007Z 24010KT 23/02 A3014 RMK A01 T02260020  RH  026%=      5-min Rain = 0
KSP2 092008Z 24010G15KT 23/02 A3014 RMK A01 T02260021  RH  026%=      5-min Rain = 0
KSP2 092009Z 23014KT 23/02 A3014 RMK A01 T02270020  RH  026%=      5-min Rain = 0
KSP2 092010Z 23013KT 23/02 A3014 RMK A01 T02260018  RH  025%=      5-min Rain = 0
KSP2 092011Z 23010KT 22/02 A3014 RMK A01 T02240020  RH  026%=      5-min Rain = 0
KSP2 092012Z 22011KT 23/02 A3014 RMK A01 T02260022  RH  026%=      5-min Rain = 0
KSP2 092013Z 23011KT 23/02 A3014 RMK A01 T02270019  RH  025%=      5-min Rain = 0
KSP2 092014Z 24011KT 23/02 A3014 RMK A01 T02270017  RH  025%=      5-min Rain = 0
KSP2 092015Z 24014KT 23/01 A3014 RMK A01 T02280012  RH  024%=      5-min Rain = 0
KSP2 092016Z 24010KT 23/01 A3014 RMK A01 T02280012  RH  024%=      5-min Rain = 0
KSP2 092017Z 25011KT 23/02 A3014 RMK A01 T02290015  RH  024%=      5-min Rain = 0
KSP2 092018Z 24007KT 23/02 A3014 RMK A01 T02290015  RH  024%=      5-min Rain = 0
KSP2 092019Z 24011KT 23/02 A3014 RMK A01 T02290015  RH  024%=      5-min Rain = 0
KSP2 092020Z 23008KT 23/02 A3014 RMK A01 T02290018  RH  025%=      5-min Rain = 0
KSP2 092021Z 23012KT 23/02 A3014 RMK A01 T02300020  RH  025%=      5-min Rain = 0
KSP2 092022Z 22011KT 23/02 A3014 RMK A01 T02290019  RH  025%=      5-min Rain = 0
KSP2 092023Z 23011KT 23/02 A3014 RMK A01 T02270017  RH  025%=      5-min Rain = 0
KSP2 092024Z 24012KT 23/02 A3014 RMK A01 T02260018  RH  025%=      5-min Rain = 0
KSP2 092025Z 25014KT 23/01 A3014 RMK A01 T02260011  RH  024%=      5-min Rain = 0
KSP2 092026Z 24013KT 23/01 A3014 RMK A01 T02270006  RH  023%=      5-min Rain = 0
KSP2 092027Z 23012KT 23/01 A3014 RMK A01 T02270007  RH  023%=      5-min Rain = 0
KSP2 092028Z 23010KT 23/01 A3014 RMK A01 T02270005  RH  023%=      5-min Rain = 0
KSP2 092029Z 23012KT 23/01 A3013 RMK A01 T02270009  RH  024%=      5-min Rain = 0
KSP2 092030Z 23011KT 23/01 A3013 RMK A01 T02270010  RH  024%=      5-min Rain = 0
KSP2 092031Z 23011KT 23/01 A3013 RMK A01 T02260012  RH  024%=      5-min Rain = 0
KSP2 092032Z 25012KT 23/01 A3013 RMK A01 T02280010  RH  024%=      5-min Rain = 0
KSP2 092033Z 25012KT 23/01 A3013 RMK A01 T02280005  RH  023%=      5-min Rain = 0
KSP2 092034Z 24012KT 23/01 A3013 RMK A01 T02280008  RH  023%=      5-min Rain = 0
KSP2 092035Z 26011KT 23/01 A3013 RMK A01 T02280011  RH  024%=      5-min Rain = 0
KSP2 092036Z 25011KT 23/01 A3013 RMK A01 T02290010  RH  024%=      5-min Rain = 0
KSP2 092037Z 23009KT 23/01 A3013 RMK A01 T02290012  RH  024%=      5-min Rain = 0
KSP2 092038Z 25010KT 23/01 A3013 RMK A01 T02290011  RH  024%=      5-min Rain = 0
KSP2 092039Z 24009KT 23/01 A3013 RMK A01 T02280014  RH  024%=      5-min Rain = 0
KSP2 092040Z 24012KT 23/01 A3013 RMK A01 T02300009  RH  023%=      5-min Rain = 0
KSP2 092041Z 24011KT 23/01 A3013 RMK A01 T02300007  RH  023%=      5-min Rain = 0
KSP2 092042Z 23010KT 23/01 A3013 RMK A01 T02290008  RH  023%=      5-min Rain = 0
KSP2 092043Z 25009KT 23/01 A3013 RMK A01 T02290010  RH  024%=      5-min Rain = 0
KSP2 092044Z 25010KT 23/01 A3013 RMK A01 T02300008  RH  023%=      5-min Rain = 0
KSP2 092045Z 26009KT 23/01 A3013 RMK A01 T02290011  RH  024%=      5-min Rain = 0
KSP2 092046Z 24011KT 23/01 A3013 RMK A01 T02300012  RH  024%=      5-min Rain = 0
KSP2 092047Z 24010KT 23/01 A3013 RMK A01 T02290010  RH  024%=      5-min Rain = 0
KSP2 092048Z 24012KT 23/01 A3013 RMK A01 T02280010  RH  024%=      5-min Rain = 0
KSP2 092049Z 24012KT 23/01 A3013 RMK A01 T02280010  RH  024%=      5-min Rain = 0
KSP2 092050Z 24010KT 23/01 A3013 RMK A01 T02270011  RH  024%=      5-min Rain = 0
KSP2 092051Z 25011KT 23/01 A3013 RMK A01 T02270013  RH  024%=      5-min Rain = 0
KSP2 092052Z 24009KT 23/01 A3013 RMK A01 T02270011  RH  024%=      5-min Rain = 0
KSP2 092053Z 25012KT 23/01 A3013 RMK A01 T02270008  RH  023%=      5-min Rain = 0
KSP2 092054Z 24013KT 23/01 A3013 RMK A01 T02280006  RH  023%=      5-min Rain = 0
KSP2 092055Z 26012KT 23/01 A3013 RMK A01 T02280007  RH  023%=      5-min Rain = 0
KSP2 092056Z 25012KT 23/01 A3013 RMK A01 T02280008  RH  023%=      5-min Rain = 0
KSP2 092057Z 24012KT 23/01 A3013 RMK A01 T02270007  RH  023%=      5-min Rain = 0
KSP2 092058Z 24009KT 23/01 A3013 RMK A01 T02270008  RH  023%=      5-min Rain = 0
KSP2 092059Z 23010KT 23/01 A3013 RMK A01 T02280008  RH  023%=      5-min Rain = 0
KSP2 092100Z 22008KT 23/01 A3013 RMK A01 T02290007  RH  023%=      5-min Rain = 0
KSP2 092101Z 23010KT 23/01 A3013 RMK A01 T02290010  RH  024%=      5-min Rain = 0
KSP2 092102Z 25008KT 23/01 A3012 RMK A01 T02280011  RH  024%=      5-min Rain = 0
KSP2 092103Z 25009KT 23/01 A3012 RMK A01 T02280011  RH  024%=      5-min Rain = 0
KSP2 092104Z 26010G16KT 23/01 A3012 RMK A01 T02290012  RH  024%=      5-min Rain = 0
KSP2 092105Z 25011KT 23/01 A3012 RMK A01 T02290012  RH  024%=      5-min Rain = 0
KSP2 092106Z 25009KT 23/01 A3012 RMK A01 T02290013  RH  024%=      5-min Rain = 0
KSP2 092107Z 25009G14KT 23/01 A3012 RMK A01 T02300014  RH  024%=      5-min Rain = 0
KSP2 092108Z 25008KT 23/01 A3012 RMK A01 T02310013  RH  024%=      5-min Rain = 0
KSP2 092109Z 25011KT 23/01 A3012 RMK A01 T02300012  RH  024%=      5-min Rain = 0
KSP2 092110Z 25011KT 23/01 A3012 RMK A01 T02290012  RH  024%=      5-min Rain = 0
KSP2 092111Z 25012KT 23/01 A3012 RMK A01 T02280010  RH  024%=      5-min Rain = 0
KSP2 092112Z 24012KT 23/01 A3012 RMK A01 T02280012  RH  024%=      5-min Rain = 0
KSP2 092113Z 24010KT 23/01 A3012 RMK A01 T02280013  RH  024%=      5-min Rain = 0
KSP2 092114Z 24010KT 23/01 A3012 RMK A01 T02280013  RH  024%=      5-min Rain = 0
KSP2 092115Z 23006KT 23/02 A3012 RMK A01 T02300015  RH  024%=      5-min Rain = 0
KSP2 092116Z 25007KT 23/02 A3012 RMK A01 T02310015  RH  024%=      5-min Rain = 0
KSP2 092117Z 24007G12KT 23/02 A3012 RMK A01 T02310017  RH  024%=      5-min Rain = 0
KSP2 092118Z 25010KT 23/01 A3012 RMK A01 T02330014  RH  024%=      5-min Rain = 0
KSP2 092119Z 23012KT 23/01 A3012 RMK A01 T02340010  RH  023%=      5-min Rain = 0
KSP2 092120Z 24011KT 23/01 A3012 RMK A01 T02310007  RH  023%=      5-min Rain = 0
KSP2 092121Z 23010KT 23/00 A3012 RMK A01 T02300003  RH  022%=      5-min Rain = 0
KSP2 092122Z 23009KT 23/01 A3012 RMK A01 T02290005  RH  023%=      5-min Rain = 0
KSP2 092123Z 23010KT 23/01 A3012 RMK A01 T02290009  RH  023%=      5-min Rain = 0
KSP2 092124Z 25010KT 23/01 A3012 RMK A01 T02300011  RH  023%=      5-min Rain = 0
KSP2 092125Z 25010KT 23/01 A3012 RMK A01 T02300013  RH  024%=      5-min Rain = 0
KSP2 092126Z 25009KT 23/01 A3012 RMK A01 T02300012  RH  024%=      5-min Rain = 0
KSP2 092127Z 24010KT 23/01 A3012 RMK A01 T02290011  RH  024%=      5-min Rain = 0
KSP2 092128Z 24011KT 23/01 A3012 RMK A01 T02290010  RH  023%=      5-min Rain = 0
KSP2 092129Z 24012KT 23/01 A3012 RMK A01 T02270006  RH  023%=      5-min Rain = 0
KSP2 092130Z 23013KT 23/01 A3012 RMK A01 T02270007  RH  023%=      5-min Rain = 0
KSP2 092131Z 23010G16KT 23/01 A3012 RMK A01 T02270007  RH  023%=      5-min Rain = 0
KSP2 092132Z 24014KT 23/01 A3012 RMK A01 T02280007  RH  023%=      5-min Rain = 0
KSP2 092133Z 23013KT 23/01 A3012 RMK A01 T02260009  RH  024%=      5-min Rain = 0
KSP2 092134Z 23011KT 23/01 A3012 RMK A01 T02250009  RH  024%=      5-min Rain = 0
KSP2 092135Z 23011KT 23/01 A3012 RMK A01 T02250008  RH  024%=      5-min Rain = 0
KSP2 092136Z 23011KT 23/01 A3011 RMK A01 T02250007  RH  024%=      5-min Rain = 0
KSP2 092137Z 24011KT 23/01 A3012 RMK A01 T02270008  RH  024%=      5-min Rain = 0
KSP2 092138Z 24009KT 23/01 A3011 RMK A01 T02270009  RH  024%=      5-min Rain = 0
KSP2 092139Z 24008KT 23/01 A3011 RMK A01 T02290013  RH  024%=      5-min Rain = 0
KSP2 092140Z 24009KT 23/01 A3011 RMK A01 T02300013  RH  024%=      5-min Rain = 0
KSP2 092141Z 23009KT 23/01 A3011 RMK A01 T02310012  RH  024%=      5-min Rain = 0
KSP2 092142Z 24011KT 23/01 A3011 RMK A01 T02310011  RH  023%=      5-min Rain = 0
KSP2 092143Z 24009KT 23/01 A3011 RMK A01 T02310007  RH  023%=      5-min Rain = 0
KSP2 092144Z 25010KT 23/01 A3011 RMK A01 T02290007  RH  023%=      5-min Rain = 0
KSP2 092145Z 24012KT 23/01 A3011 RMK A01 T02280007  RH  023%=      5-min Rain = 0
KSP2 092146Z 24009KT 23/01 A3011 RMK A01 T02280007  RH  023%=      5-min Rain = 0
KSP2 092147Z 25009KT 23/01 A3011 RMK A01 T02280009  RH  023%=      5-min Rain = 0
KSP2 092148Z 25009KT 23/01 A3011 RMK A01 T02290007  RH  023%=      5-min Rain = 0
KSP2 092149Z 24011KT 23/01 A3011 RMK A01 T02280007  RH  023%=      5-min Rain = 0
KSP2 092150Z 23009KT 23/01 A3011 RMK A01 T02280009  RH  024%=      5-min Rain = 0
KSP2 092151Z 23012KT 23/01 A3011 RMK A01 T02280011  RH  024%=      5-min Rain = 0
KSP2 092152Z 24011KT 23/01 A3011 RMK A01 T02270011  RH  024%=      5-min Rain = 0
KSP2 092153Z 23008KT 23/01 A3011 RMK A01 T02270014  RH  025%=      5-min Rain = 0
KSP2 092154Z 24008KT 23/01 A3011 RMK A01 T02280014  RH  024%=      5-min Rain = 0
KSP2 092155Z 23009KT 23/01 A3011 RMK A01 T02290014  RH  024%=      5-min Rain = 0
KSP2 092156Z 24007KT 23/01 A3011 RMK A01 T02300013  RH  024%=      5-min Rain = 0
KSP2 092157Z 23009KT 23/01 A3011 RMK A01 T02290014  RH  024%=      5-min Rain = 0
KSP2 092158Z 24010KT 23/01 A3011 RMK A01 T02290013  RH  024%=      5-min Rain = 0
KSP2 092159Z 24012KT 23/01 A3011 RMK A01 T02300010  RH  023%=      5-min Rain = 0
KSP2 092200Z 23011KT 23/01 A3011 RMK A01 T02280007  RH  023%=      5-min Rain = 0
KSP2 092201Z 23011KT 23/01 A3011 RMK A01 T02270009  RH  024%=      5-min Rain = 0
KSP2 092202Z 23011KT 23/01 A3011 RMK A01 T02260008  RH  024%=      5-min Rain = 0
KSP2 092203Z 23010KT 23/01 A3011 RMK A01 T02260009  RH  024%=      5-min Rain = 0
KSP2 092204Z 22010KT 23/01 A3011 RMK A01 T02260010  RH  024%=      5-min Rain = 0
KSP2 092205Z 22008KT 23/01 A3011 RMK A01 T02250011  RH  024%=      5-min Rain = 0
KSP2 092206Z 24009KT 23/02 A3011 RMK A01 T02260016  RH  025%=      5-min Rain = 0
KSP2 092207Z 24010KT 23/02 A3011 RMK A01 T02260020  RH  026%=      5-min Rain = 0
KSP2 092208Z 23008KT 23/02 A3011 RMK A01 T02260019  RH  026%=      5-min Rain = 0
KSP2 092209Z 22008KT 23/02 A3011 RMK A01 T02260022  RH  026%=      5-min Rain = 0
KSP2 092210Z 22008KT 23/03 A3011 RMK A01 T02270030  RH  028%=      5-min Rain = 0
KSP2 092211Z 22009KT 23/04 A3011 RMK A01 T02270035  RH  028%=      5-min Rain = 0
KSP2 092212Z 22009KT 23/04 A3011 RMK A01 T02270036  RH  029%=      5-min Rain = 0
KSP2 092213Z 22009KT 23/04 A3011 RMK A01 T02260036  RH  029%=      5-min Rain = 0
KSP2 092214Z 22007KT 23/04 A3011 RMK A01 T02260038  RH  029%=      5-min Rain = 0
KSP2 092215Z 21009KT 23/04 A3011 RMK A01 T02260038  RH  029%=      5-min Rain = 0
KSP2 092216Z 22007KT 23/04 A3011 RMK A01 T02260039  RH  030%=      5-min Rain = 0
KSP2 092217Z 21009KT 23/04 A3011 RMK A01 T02260040  RH  030%=      5-min Rain = 0
KSP2 092218Z 22008KT 23/04 A3011 RMK A01 T02250039  RH  030%=      5-min Rain = 0
KSP2 092219Z 23011KT 23/04 A3011 RMK A01 T02250040  RH  030%=      5-min Rain = 0
KSP2 092220Z 23011KT 22/04 A301 RMK A01 T02240041  RH  030%=      5-min Rain = 0
KSP2 092221Z 22010KT 22/04 A301 RMK A01 T02230040  RH  030%=      5-min Rain = 0
KSP2 092222Z 22012KT 22/04 A301 RMK A01 T02220040  RH  031%=      5-min Rain = 0
KSP2 092223Z 22012KT 22/04 A301 RMK A01 T02200039  RH  031%=      5-min Rain = 0
KSP2 092224Z 21010KT 22/04 A301 RMK A01 T02190040  RH  031%=      5-min Rain = 0
KSP2 092225Z 20011KT 22/04 A301 RMK A01 T02190041  RH  031%=      5-min Rain = 0
KSP2 092226Z 20010KT 22/04 A301 RMK A01 T02180042  RH  032%=      5-min Rain = 0
KSP2 092227Z 22008KT 22/04 A301 RMK A01 T02180042  RH  032%=      5-min Rain = 0
KSP2 092228Z 22010KT 22/04 A301 RMK A01 T02190042  RH  031%=      5-min Rain = 0
KSP2 092229Z 22011KT 22/04 A301 RMK A01 T02190041  RH  031%=      5-min Rain = 0
KSP2 092230Z 21010KT 22/04 A301 RMK A01 T02190041  RH  031%=      5-min Rain = 0
KSP2 092231Z 21009KT 22/04 A301 RMK A01 T02170041  RH  032%=      5-min Rain = 0
KSP2 092232Z 22008KT 22/04 A301 RMK A01 T02170043  RH  032%=      5-min Rain = 0
KSP2 092233Z 21009KT 22/04 A301 RMK A01 T02170042  RH  032%=      5-min Rain = 0
KSP2 092234Z 21010KT 22/04 A301 RMK A01 T02170042  RH  032%=      5-min Rain = 0
KSP2 092235Z 22008KT 22/04 A301 RMK A01 T02180042  RH  032%=      5-min Rain = 0
KSP2 092236Z 21007KT 22/04 A301 RMK A01 T02170041  RH  031%=      5-min Rain = 0
KSP2 092237Z 21008KT 22/04 A301 RMK A01 T02170041  RH  031%=      5-min Rain = 0
KSP2 092238Z 21009KT 22/04 A301 RMK A01 T02170040  RH  031%=      5-min Rain = 0
KSP2 092239Z 21009KT 22/04 A301 RMK A01 T02170040  RH  031%=      5-min Rain = 0
KSP2 092240Z 21010KT 22/04 A301 RMK A01 T02160040  RH  031%=      5-min Rain = 0
KSP2 092241Z 22008KT 22/04 A301 RMK A01 T02160040  RH  032%=      5-min Rain = 0
KSP2 092242Z 22008KT 22/04 A301 RMK A01 T02160040  RH  032%=      5-min Rain = 0
KSP2 092243Z 22008KT 22/04 A301 RMK A01 T02160039  RH  031%=      5-min Rain = 0
KSP2 092244Z 22008KT 22/04 A301 RMK A01 T02150039  RH  031%=      5-min Rain = 0
KSP2 092245Z 22008KT 22/04 A301 RMK A01 T02150038  RH  031%=      5-min Rain = 0
KSP2 092246Z 21006KT 22/04 A301 RMK A01 T02150038  RH  031%=      5-min Rain = 0
KSP2 092247Z 21007KT 22/04 A301 RMK A01 T02150038  RH  031%=      5-min Rain = 0
KSP2 092248Z 21009KT 22/04 A301 RMK A01 T02150035  RH  030%=      5-min Rain = 0
KSP2 092249Z 21008KT 22/04 A301 RMK A01 T02150035  RH  031%=      5-min Rain = 0
KSP2 092250Z 21008KT 21/04 A301 RMK A01 T02140036  RH  031%=      5-min Rain = 0
KSP2 092251Z 21009KT 21/04 A301 RMK A01 T02130035  RH  031%=      5-min Rain = 0
KSP2 092252Z 21009KT 21/04 A301 RMK A01 T02120035  RH  031%=      5-min Rain = 0
KSP2 092253Z 21008KT 21/04 A301 RMK A01 T02120036  RH  031%=      5-min Rain = 0
KSP2 092254Z 22007KT 21/04 A301 RMK A01 T02110036  RH  031%=      5-min Rain = 0
KSP2 092255Z 22005KT 21/04 A301 RMK A01 T02110035  RH  031%=      5-min Rain = 0
KSP2 092256Z 22008KT 21/04 A301 RMK A01 T02110035  RH  031%=      5-min Rain = 0
KSP2 092257Z 22008KT 21/03 A301 RMK A01 T02120034  RH  031%=      5-min Rain = 0
KSP2 092258Z 21008KT 21/03 A301 RMK A01 T02110034  RH  031%=      5-min Rain = 0
KSP2 092259Z 21008KT 21/03 A301 RMK A01 T02100033  RH  031%=      5-min Rain = 0
KSP2 092300Z 21009KT 21/03 A301 RMK A01 T02100032  RH  031%=      5-min Rain = 0
KSP2 092301Z 21010KT 21/03 A301 RMK A01 T02090030  RH  031%=      5-min Rain = 0
KSP2 092302Z 21008KT 21/03 A301 RMK A01 T02080031  RH  031%=      5-min Rain = 0
KSP2 092303Z 21009KT 21/03 A301 RMK A01 T02070031  RH  031%=      5-min Rain = 0
KSP2 092304Z 21008KT 21/03 A301 RMK A01 T02050031  RH  032%=      5-min Rain = 0
KSP2 092305Z 21008KT 20/03 A301 RMK A01 T02040032  RH  032%=      5-min Rain = 0
KSP2 092306Z 21007KT 20/03 A301 RMK A01 T02030032  RH  032%=      5-min Rain = 0
KSP2 092307Z 21007KT 20/03 A301 RMK A01 T02010031  RH  032%=      5-min Rain = 0
KSP2 092308Z 21007KT 20/03 A301 RMK A01 T02000030  RH  033%=      5-min Rain = 0
KSP2 092309Z 21007KT 20/03 A301 RMK A01 T01990029  RH  032%=      5-min Rain = 0
KSP2 092310Z 21007KT 20/03 A301 RMK A01 T01980029  RH  033%=      5-min Rain = 0
KSP2 092311Z 21007KT 20/03 A301 RMK A01 T01970029  RH  033%=      5-min Rain = 0
KSP2 092312Z 21006KT 20/03 A301 RMK A01 T01970029  RH  033%=      5-min Rain = 0
KSP2 092313Z 21007KT 20/03 A301 RMK A01 T01960030  RH  033%=      5-min Rain = 0
KSP2 092314Z 21006KT 20/03 A301 RMK A01 T01950029  RH  033%=      5-min Rain = 0
KSP2 092315Z 21006KT 20/03 A301 RMK A01 T01950030  RH  034%=      5-min Rain = 0
KSP2 092316Z 21006KT 19/03 A301 RMK A01 T01930030  RH  034%=      5-min Rain = 0
KSP2 092317Z 20006KT 19/03 A301 RMK A01 T01930030  RH  034%=      5-min Rain = 0
KSP2 092318Z 20006KT 19/03 A301 RMK A01 T01910031  RH  034%=      5-min Rain = 0
KSP2 092319Z 20006KT 19/03 A301 RMK A01 T01900031  RH  035%=      5-min Rain = 0
KSP2 092320Z 20006KT 19/03 A301 RMK A01 T01890031  RH  035%=      5-min Rain = 0
KSP2 092321Z 20006KT 19/03 A301 RMK A01 T01870030  RH  035%=      5-min Rain = 0
KSP2 092322Z 20006KT 19/03 A301 RMK A01 T01850030  RH  036%=      5-min Rain = 0
KSP2 092323Z 20006KT 18/03 A301 RMK A01 T01840030  RH  036%=      5-min Rain = 0
KSP2 092324Z 20006KT 18/03 A301 RMK A01 T01820030  RH  036%=      5-min Rain = 0
KSP2 092325Z 20005KT 18/03 A301 RMK A01 T01800030  RH  037%=      5-min Rain = 0
KSP2 092326Z 20006KT 18/03 A301 RMK A01 T01780030  RH  037%=      5-min Rain = 0
KSP2 092327Z 20006KT 18/03 A301 RMK A01 T01760030  RH  038%=      5-min Rain = 0
KSP2 092328Z 20006KT 17/03 A301 RMK A01 T01740030  RH  038%=      5-min Rain = 0
KSP2 092329Z 20006KT 17/03 A301 RMK A01 T01720030  RH  039%=      5-min Rain = 0
KSP2 092330Z 20006KT 17/03 A301 RMK A01 T01700030  RH  039%=      5-min Rain = 0
KSP2 092331Z 20006KT 17/03 A301 RMK A01 T01680030  RH  040%=      5-min Rain = 0
KSP2 092332Z 20006KT 17/03 A301 RMK A01 T01660030  RH  040%=      5-min Rain = 0
KSP2 092333Z 20006KT 16/03 A301 RMK A01 T01640031  RH  041%=      5-min Rain = 0
KSP2 092334Z 20005KT 16/03 A301 RMK A01 T01630030  RH  041%=      5-min Rain = 0
KSP2 092335Z 20005KT 16/03 A301 RMK A01 T01610030  RH  041%=      5-min Rain = 0
KSP2 092336Z 20005KT 16/03 A301 RMK A01 T01600030  RH  042%=      5-min Rain = 0
KSP2 092337Z 20005KT 16/03 A301 RMK A01 T01590031  RH  042%=      5-min Rain = 0
KSP2 092338Z 19005KT 16/03 A301 RMK A01 T01570031  RH  043%=      5-min Rain = 0
KSP2 092339Z 19005KT 16/03 A301 RMK A01 T01550031  RH  043%=      5-min Rain = 0
KSP2 092340Z 19005KT 15/03 A301 RMK A01 T01530031  RH  044%=      5-min Rain = 0
KSP2 092341Z 19005KT 15/03 A301 RMK A01 T01510031  RH  044%=      5-min Rain = 0
KSP2 092342Z 19005KT 15/03 A301 RMK A01 T01500031  RH  045%=      5-min Rain = 0
KSP2 092343Z 18005KT 15/03 A301 RMK A01 T01490031  RH  045%=      5-min Rain = 0
KSP2 092344Z 18005KT 15/03 A301 RMK A01 T01470030  RH  045%=      5-min Rain = 0
KSP2 092345Z 18005KT 15/03 A301 RMK A01 T01460030  RH  046%=      5-min Rain = 0
KSP2 092346Z 18005KT 15/03 A301 RMK A01 T01450030  RH  046%=      5-min Rain = 0
KSP2 092347Z 18005KT 14/03 A301 RMK A01 T01430030  RH  046%=      5-min Rain = 0
KSP2 092348Z 19006KT 14/03 A301 RMK A01 T01420030  RH  047%=      5-min Rain = 0
KSP2 092349Z 19005KT 14/03 A301 RMK A01 T01410030  RH  047%=      5-min Rain = 0
KSP2 092350Z 19006KT 14/03 A301 RMK A01 T01400031  RH  048%=      5-min Rain = 0
KSP2 092351Z 18006KT 14/03 A301 RMK A01 T01390031  RH  048%=      5-min Rain = 0
KSP2 092352Z 18006KT 14/03 A301 RMK A01 T01380031  RH  049%=      5-min Rain = 0
KSP2 092353Z 19007KT 14/03 A301 RMK A01 T01360031  RH  049%=      5-min Rain = 0
KSP2 092354Z 19007KT 13/03 A301 RMK A01 T01330030  RH  050%=      5-min Rain = 0
KSP2 092355Z 19007KT 13/03 A301 RMK A01 T01310030  RH  050%=      5-min Rain = 0
KSP2 092356Z 19007KT 13/03 A301 RMK A01 T01290031  RH  051%=      5-min Rain = 0
KSP2 092357Z 19007KT 13/03 A301 RMK A01 T01270030  RH  052%=      5-min Rain = 0
KSP2 092358Z 19007KT 13/03 A301 RMK A01 T01250031  RH  053%=      5-min Rain = 0
KSP2 092359Z 19007KT 12/03 A301 RMK A01 T01230032  RH  054%=      5-min Rain = 0
KSP2 100000Z 19007KT 12/03 A301 RMK A01 T01210033  RH  055%=      5-min Rain = 0
KSP2 100001Z 19007KT 12/03 A301 RMK A01 T01200033  RH  055%=      5-min Rain = 0
KSP2 100002Z 19007KT 12/03 A301 RMK A01 T01190034  RH  056%=      5-min Rain = 0
KSP2 100003Z 19007KT 12/03 A301 RMK A01 T01180034  RH  057%=      5-min Rain = 0
KSP2 100004Z 19007KT 12/04 A301 RMK A01 T01170035  RH  057%=      5-min Rain = 0
KSP2 100005Z 19006KT 12/04 A301 RMK A01 T01150035  RH  058%=      5-min Rain = 0
KSP2 100006Z 19007KT 12/04 A301 RMK A01 T01150036  RH  058%=      5-min Rain = 0
KSP2 100007Z 19006KT 11/04 A301 RMK A01 T01140036  RH  059%=      5-min Rain = 0
KSP2 100008Z 19006KT 11/04 A301 RMK A01 T01140036  RH  059%=      5-min Rain = 0
KSP2 100009Z 19006KT 11/04 A301 RMK A01 T01120035  RH  059%=      5-min Rain = 0
KSP2 100010Z 19007KT 11/04 A301 RMK A01 T01110035  RH  059%=      5-min Rain = 0
KSP2 100011Z 19006KT 11/04 A301 RMK A01 T01100035  RH  060%=      5-min Rain = 0
KSP2 100012Z 19007KT 11/04 A301 RMK A01 T01090036  RH  060%=      5-min Rain = 0
KSP2 100013Z 19007KT 11/04 A301 RMK A01 T01090036  RH  061%=      5-min Rain = 0
KSP2 100014Z 19007KT 11/04 A301 RMK A01 T01080036  RH  061%=      5-min Rain = 0
KSP2 100015Z 19007KT 11/04 A301 RMK A01 T01070037  RH  062%=      5-min Rain = 0
KSP2 100016Z 19006KT 11/04 A301 RMK A01 T01070037  RH  062%=      5-min Rain = 0
KSP2 100017Z 19006KT 11/04 A301 RMK A01 T01070037  RH  062%=      5-min Rain = 0
KSP2 100018Z 19006KT 11/04 A301 RMK A01 T01050037  RH  062%=      5-min Rain = 0
KSP2 100019Z 19006KT 10/04 A301 RMK A01 T01040036  RH  063%=      5-min Rain = 0
KSP2 100020Z 19006KT 10/04 A301 RMK A01 T01030036  RH  063%=      5-min Rain = 0
KSP2 100021Z 19006KT 10/04 A301 RMK A01 T01020037  RH  064%=      5-min Rain = 0
KSP2 100022Z 20006KT 10/04 A301 RMK A01 T01010037  RH  064%=      5-min Rain = 0
KSP2 100023Z 19006KT 10/04 A301 RMK A01 T01000037  RH  065%=      5-min Rain = 0
KSP2 100024Z 19006KT 10/04 A301 RMK A01 T01000037  RH  065%=      5-min Rain = 0
KSP2 100025Z 20006KT 10/04 A301 RMK A01 T00990037  RH  066%=      5-min Rain = 0
KSP2 100026Z 20006KT 10/04 A301 RMK A01 T00980037  RH  066%=      5-min Rain = 0
KSP2 100027Z 20007KT 10/04 A301 RMK A01 T00980037  RH  066%=      5-min Rain = 0
KSP2 100028Z 20007KT 10/04 A301 RMK A01 T00970037  RH  066%=      5-min Rain = 0
KSP2 100029Z 20007KT 10/04 A301 RMK A01 T00970037  RH  066%=      5-min Rain = 0
KSP2 100030Z 20007KT 10/04 A301 RMK A01 T00970037  RH  067%=      5-min Rain = 0
KSP2 100031Z 20007KT 10/04 A301 RMK A01 T00960037  RH  067%=      5-min Rain = 0
KSP2 100032Z 20007KT 10/04 A301 RMK A01 T00950037  RH  067%=      5-min Rain = 0
KSP2 100033Z 20007KT 10/04 A301 RMK A01 T00950037  RH  067%=      5-min Rain = 0
KSP2 100034Z 20007KT 10/04 A301 RMK A01 T00950038  RH  067%=      5-min Rain = 0
KSP2 100035Z 20007KT 10/04 A301 RMK A01 T00960039  RH  067%=      5-min Rain = 0
KSP2 100036Z 20008KT 10/04 A301 RMK A01 T00960038  RH  067%=      5-min Rain = 0
KSP2 100037Z 20007KT 10/04 A301 RMK A01 T00960039  RH  067%=      5-min Rain = 0
KSP2 100038Z 19007KT 10/04 A301 RMK A01 T00960039  RH  068%=      5-min Rain = 0
KSP2 100039Z 20007KT 10/04 A301 RMK A01 T00960039  RH  068%=      5-min Rain = 0
KSP2 100040Z 19007KT 10/04 A301 RMK A01 T00950040  RH  068%=      5-min Rain = 0
KSP2 100041Z 19007KT 10/04 A301 RMK A01 T00950040  RH  068%=      5-min Rain = 0
KSP2 100042Z 19007KT 09/04 A301 RMK A01 T00940039  RH  068%=      5-min Rain = 0
KSP2 100043Z 19007KT 09/04 A3011 RMK A01 T00940039  RH  069%=      5-min Rain = 0
KSP2 100044Z 19007KT 09/04 A3011 RMK A01 T00930039  RH  069%=      5-min Rain = 0
KSP2 100045Z 19007KT 09/04 A3011 RMK A01 T00920038  RH  069%=      5-min Rain = 0
KSP2 100046Z 20007KT 09/04 A3011 RMK A01 T00910038  RH  070%=      5-min Rain = 0
KSP2 100047Z 20007KT 09/04 A3011 RMK A01 T00900038  RH  070%=      5-min Rain = 0
KSP2 100048Z 20007KT 09/04 A3011 RMK A01 T00900038  RH  070%=      5-min Rain = 0
KSP2 100049Z 19007KT 09/04 A3011 RMK A01 T00900039  RH  070%=      5-min Rain = 0
KSP2 100050Z 19007KT 09/04 A3011 RMK A01 T00900039  RH  070%=      5-min Rain = 0
KSP2 100051Z 20007KT 09/04 A3011 RMK A01 T00890038  RH  070%=      5-min Rain = 0
KSP2 100052Z 20007KT 09/04 A3011 RMK A01 T00880038  RH  071%=      5-min Rain = 0
KSP2 100053Z 20007KT 09/04 A3011 RMK A01 T00880039  RH  071%=      5-min Rain = 0
KSP2 100054Z 19008KT 09/04 A3011 RMK A01 T00890040  RH  072%=      5-min Rain = 0
KSP2 100055Z 19009KT 09/04 A3011 RMK A01 T00890040  RH  072%=      5-min Rain = 0
KSP2 100056Z 19008KT 09/04 A3011 RMK A01 T00890040  RH  072%=      5-min Rain = 0
KSP2 100057Z 19008KT 09/04 A3011 RMK A01 T00890041  RH  072%=      5-min Rain = 0
KSP2 100058Z 20008KT 09/04 A3011 RMK A01 T00890041  RH  072%=      5-min Rain = 0
KSP2 100059Z 20008KT 09/04 A3011 RMK A01 T00890042  RH  072%=      5-min Rain = 0
KSP2 100100Z 19008KT 09/04 A3011 RMK A01 T00900043  RH  072%=      5-min Rain = 0
KSP2 100101Z 19008KT 09/04 A3011 RMK A01 T00900043  RH  072%=      5-min Rain = 0
KSP2 100102Z 20008KT 09/04 A3011 RMK A01 T00910043  RH  072%=      5-min Rain = 0
KSP2 100103Z 19008KT 09/04 A3011 RMK A01 T00910044  RH  072%=      5-min Rain = 0
KSP2 100104Z 20008KT 09/04 A3011 RMK A01 T00910044  RH  072%=      5-min Rain = 0
KSP2 100105Z 20008KT 09/04 A3011 RMK A01 T00910044  RH  072%=      5-min Rain = 0
KSP2 100106Z 19009KT 09/05 A3011 RMK A01 T00910045  RH  073%=      5-min Rain = 0
KSP2 100107Z 20009KT 09/05 A3011 RMK A01 T00920046  RH  073%=      5-min Rain = 0
KSP2 100108Z 20009KT 09/05 A3011 RMK A01 T00930047  RH  073%=      5-min Rain = 0
KSP2 100109Z 20009KT 10/05 A3011 RMK A01 T00950047  RH  072%=      5-min Rain = 0
KSP2 100110Z 20009KT 10/05 A3011 RMK A01 T00950048  RH  072%=      5-min Rain = 0
KSP2 100111Z 20009KT 10/05 A3011 RMK A01 T00960048  RH  072%=      5-min Rain = 0
KSP2 100112Z 20009KT 10/05 A3011 RMK A01 T00970048  RH  071%=      5-min Rain = 0
KSP2 100113Z 20009KT 10/05 A3011 RMK A01 T00970048  RH  071%=      5-min Rain = 0
KSP2 100114Z 20009KT 10/05 A3011 RMK A01 T00980049  RH  071%=      5-min Rain = 0
KSP2 100115Z 20009KT 10/05 A3011 RMK A01 T00990049  RH  071%=      5-min Rain = 0
KSP2 100116Z 19009KT 10/05 A3011 RMK A01 T00990048  RH  071%=      5-min Rain = 0
KSP2 100117Z 19009KT 10/05 A3011 RMK A01 T00990049  RH  071%=      5-min Rain = 0
KSP2 100118Z 20009KT 10/05 A3011 RMK A01 T00990049  RH  071%=      5-min Rain = 0
KSP2 100119Z 19008KT 10/05 A3011 RMK A01 T00980049  RH  071%=      5-min Rain = 0
KSP2 100120Z 20008KT 10/05 A3011 RMK A01 T00980049  RH  072%=      5-min Rain = 0
KSP2 100121Z 19008KT 10/05 A3011 RMK A01 T00980050  RH  072%=      5-min Rain = 0
KSP2 100122Z 19008KT 10/05 A3011 RMK A01 T00980049  RH  072%=      5-min Rain = 0
KSP2 100123Z 20008KT 10/05 A3011 RMK A01 T00970050  RH  072%=      5-min Rain = 0
KSP2 100124Z 20009KT 10/05 A3011 RMK A01 T00970050  RH  073%=      5-min Rain = 0
KSP2 100125Z 19009KT 10/05 A3011 RMK A01 T00960050  RH  073%=      5-min Rain = 0
KSP2 100126Z 20009KT 10/05 A3011 RMK A01 T00960051  RH  073%=      5-min Rain = 0
KSP2 100127Z 20009KT 10/05 A3011 RMK A01 T00960051  RH  073%=      5-min Rain = 0
KSP2 100128Z 20008KT 10/05 A3011 RMK A01 T00960050  RH  073%=      5-min Rain = 0
KSP2 100129Z 20009KT 10/05 A301 RMK A01 T00950050  RH  073%=      5-min Rain = 0
KSP2 100130Z 20009KT 09/05 A301 RMK A01 T00940049  RH  073%=      5-min Rain = 0
KSP2 100131Z 20009KT 09/05 A301 RMK A01 T00940049  RH  073%=      5-min Rain = 0
KSP2 100132Z 20008KT 09/05 A301 RMK A01 T00930048  RH  074%=      5-min Rain = 0
KSP2 100133Z 20008KT 09/05 A301 RMK A01 T00920047  RH  074%=      5-min Rain = 0
KSP2 100134Z 20008KT 09/05 A301 RMK A01 T00910047  RH  074%=      5-min Rain = 0
KSP2 100135Z 20008KT 09/05 A301 RMK A01 T00910047  RH  074%=      5-min Rain = 0
KSP2 100136Z 20008KT 09/05 A301 RMK A01 T00900046  RH  074%=      5-min Rain = 0
KSP2 100137Z 20008KT 09/05 A3011 RMK A01 T00890046  RH  074%=      5-min Rain = 0
KSP2 100138Z 20008KT 09/05 A3011 RMK A01 T00890046  RH  075%=      5-min Rain = 0
KSP2 100139Z 20007KT 09/05 A3011 RMK A01 T00890046  RH  075%=      5-min Rain = 0
KSP2 100140Z 20008KT 09/05 A3011 RMK A01 T00890046  RH  075%=      5-min Rain = 0
KSP2 100141Z 20007KT 09/05 A3011 RMK A01 T00890046  RH  075%=      5-min Rain = 0
KSP2 100142Z 20007KT 09/05 A3011 RMK A01 T00880046  RH  075%=      5-min Rain = 0
KSP2 100143Z 20007KT 09/05 A3011 RMK A01 T00870046  RH  075%=      5-min Rain = 0
KSP2 100144Z 20007KT 09/05 A3011 RMK A01 T00870045  RH  075%=      5-min Rain = 0
KSP2 100145Z 20007KT 09/05 A3011 RMK A01 T00860045  RH  075%=      5-min Rain = 0
KSP2 100146Z 20006KT 09/05 A3011 RMK A01 T00860045  RH  075%=      5-min Rain = 0
KSP2 100147Z 20007KT 09/05 A3011 RMK A01 T00850045  RH  076%=      5-min Rain = 0
KSP2 100148Z 20007KT 09/05 A3011 RMK A01 T00850045  RH  076%=      5-min Rain = 0
KSP2 100149Z 20007KT 09/05 A3011 RMK A01 T00850045  RH  076%=      5-min Rain = 0
KSP2 100150Z 20007KT 08/05 A3011 RMK A01 T00840045  RH  076%=      5-min Rain = 0
KSP2 100151Z 20007KT 08/04 A3011 RMK A01 T00830044  RH  076%=      5-min Rain = 0
KSP2 100152Z 20007KT 08/04 A3011 RMK A01 T00820044  RH  077%=      5-min Rain = 0
KSP2 100153Z 20008KT 08/04 A301 RMK A01 T00810044  RH  077%=      5-min Rain = 0
KSP2 100154Z 20007KT 08/04 A301 RMK A01 T00810044  RH  077%=      5-min Rain = 0
KSP2 100155Z 20008KT 08/04 A301 RMK A01 T00800044  RH  078%=      5-min Rain = 0
KSP2 100156Z 20008KT 08/04 A301 RMK A01 T00800044  RH  078%=      5-min Rain = 0
KSP2 100157Z 20008KT 08/05 A301 RMK A01 T00800045  RH  078%=      5-min Rain = 0
KSP2 100158Z 20008KT 08/04 A301 RMK A01 T00800044  RH  078%=      5-min Rain = 0
KSP2 100159Z 20009KT 08/04 A301 RMK A01 T00800044  RH  078%=      5-min Rain = 0
KSP2 100200Z 20009KT 08/04 A301 RMK A01 T00800044  RH  078%=      5-min Rain = 0
KSP2 100201Z 20009KT 08/05 A301 RMK A01 T00800045  RH  078%=      5-min Rain = 0
KSP2 100202Z 20009KT 08/05 A301 RMK A01 T00800045  RH  078%=      5-min Rain = 0
KSP2 100203Z 19008KT 08/05 A301 RMK A01 T00800045  RH  078%=      5-min Rain = 0
KSP2 100204Z 19008KT 08/05 A301 RMK A01 T00800045  RH  078%=      5-min Rain = 0
KSP2 100205Z 19008KT 08/05 A301 RMK A01 T00800045  RH  079%=      5-min Rain = 0
KSP2 100206Z 20008KT 08/05 A301 RMK A01 T00790046  RH  079%=      5-min Rain = 0
KSP2 100207Z 20007KT 08/05 A301 RMK A01 T00800046  RH  079%=      5-min Rain = 0
KSP2 100208Z 20007KT 08/05 A301 RMK A01 T00800046  RH  079%=      5-min Rain = 0
KSP2 100209Z 19007KT 08/05 A301 RMK A01 T00800046  RH  079%=      5-min Rain = 0
KSP2 100210Z 20007KT 08/05 A301 RMK A01 T00800046  RH  079%=      5-min Rain = 0
KSP2 100211Z 20007KT 08/05 A301 RMK A01 T00800046  RH  079%=      5-min Rain = 0
KSP2 100212Z 20007KT 08/05 A301 RMK A01 T00800046  RH  079%=      5-min Rain = 0
KSP2 100213Z 20006KT 08/05 A301 RMK A01 T00800046  RH  079%=      5-min Rain = 0
KSP2 100214Z 20006KT 08/05 A301 RMK A01 T00800045  RH  079%=      5-min Rain = 0
KSP2 100215Z 20006KT 08/05 A301 RMK A01 T00790045  RH  079%=      5-min Rain = 0
KSP2 100216Z 20006KT 08/05 A301 RMK A01 T00790045  RH  079%=      5-min Rain = 0
KSP2 100217Z 20007KT 08/04 A301 RMK A01 T00780044  RH  079%=      5-min Rain = 0
KSP2 100218Z 20006KT 08/04 A301 RMK A01 T00780044  RH  079%=      5-min Rain = 0
KSP2 100219Z 20007KT 08/04 A301 RMK A01 T00770044  RH  079%=      5-min Rain = 0
KSP2 100220Z 20007KT 08/04 A301 RMK A01 T00770044  RH  080%=      5-min Rain = 0
KSP2 100221Z 20007KT 08/04 A301 RMK A01 T00760044  RH  080%=      5-min Rain = 0
KSP2 100222Z 20007KT 08/04 A301 RMK A01 T00760044  RH  080%=      5-min Rain = 0
KSP2 100223Z 19007KT 08/04 A301 RMK A01 T00760044  RH  080%=      5-min Rain = 0
KSP2 100224Z 20007KT 08/04 A301 RMK A01 T00760044  RH  080%=      5-min Rain = 0
KSP2 100225Z 20008KT 08/05 A301 RMK A01 T00760045  RH  080%=      5-min Rain = 0
KSP2 100226Z 20007KT 08/05 A301 RMK A01 T00760045  RH  080%=      5-min Rain = 0
KSP2 100227Z 20007KT 08/05 A301 RMK A01 T00770045  RH  080%=      5-min Rain = 0
KSP2 100228Z 20007KT 08/05 A301 RMK A01 T00770045  RH  080%=      5-min Rain = 0
KSP2 100229Z 20008KT 08/04 A301 RMK A01 T00760044  RH  080%=      5-min Rain = 0
KSP2 100230Z 20008KT 08/04 A301 RMK A01 T00760044  RH  080%=      5-min Rain = 0
KSP2 100231Z 20008KT 08/04 A301 RMK A01 T00760044  RH  080%=      5-min Rain = 0
KSP2 100232Z 20008KT 08/04 A301 RMK A01 T00760044  RH  080%=      5-min Rain = 0
KSP2 100233Z 20008KT 08/04 A301 RMK A01 T00760044  RH  080%=      5-min Rain = 0
KSP2 100234Z 20008KT 08/04 A301 RMK A01 T00760044  RH  080%=      5-min Rain = 0
KSP2 100235Z 20008KT 08/04 A301 RMK A01 T00750044  RH  081%=      5-min Rain = 0
KSP2 100236Z 20008KT 08/04 A301 RMK A01 T00750044  RH  081%=      5-min Rain = 0
KSP2 100237Z 20008KT 08/04 A301 RMK A01 T00750044  RH  081%=      5-min Rain = 0
KSP2 100238Z 20007KT 08/05 A301 RMK A01 T00760045  RH  081%=      5-min Rain = 0
KSP2 100239Z 20008KT 08/05 A301 RMK A01 T00760045  RH  081%=      5-min Rain = 0
KSP2 100240Z 20008KT 08/05 A301 RMK A01 T00760045  RH  081%=      5-min Rain = 0
KSP2 100241Z 20007KT 08/05 A301 RMK A01 T00760046  RH  081%=      5-min Rain = 0
KSP2 100242Z 20007KT 08/05 A301 RMK A01 T00760046  RH  081%=      5-min Rain = 0
KSP2 100243Z 20008KT 08/05 A301 RMK A01 T00760046  RH  081%=      5-min Rain = 0
KSP2 100244Z 20008KT 08/05 A301 RMK A01 T00760047  RH  082%=      5-min Rain = 0
KSP2 100245Z 20008KT 08/05 A301 RMK A01 T00760047  RH  082%=      5-min Rain = 0
KSP2 100246Z 20008KT 08/05 A301 RMK A01 T00760047  RH  082%=      5-min Rain = 0
KSP2 100247Z 20008KT 08/05 A301 RMK A01 T00760048  RH  082%=      5-min Rain = 0
KSP2 100248Z 20008KT 08/05 A301 RMK A01 T00760048  RH  082%=      5-min Rain = 0
KSP2 100249Z 20008KT 08/05 A301 RMK A01 T00760048  RH  082%=      5-min Rain = 0
KSP2 100250Z 20008KT 08/05 A301 RMK A01 T00760048  RH  082%=      5-min Rain = 0
KSP2 100251Z 20008KT 08/05 A301 RMK A01 T00760048  RH  082%=      5-min Rain = 0
KSP2 100252Z 20008KT 08/05 A301 RMK A01 T00760048  RH  082%=      5-min Rain = 0
KSP2 100253Z 20008KT 08/05 A301 RMK A01 T00770049  RH  082%=      5-min Rain = 0
KSP2 100254Z 20008KT 08/05 A301 RMK A01 T00770049  RH  083%=      5-min Rain = 0
KSP2 100255Z 20008KT 08/05 A301 RMK A01 T00770049  RH  082%=      5-min Rain = 0
KSP2 100256Z 20007KT 08/05 A301 RMK A01 T00770049  RH  082%=      5-min Rain = 0
KSP2 100257Z 21007KT 08/05 A301 RMK A01 T00770049  RH  082%=      5-min Rain = 0
KSP2 100258Z 21007KT 08/05 A301 RMK A01 T00770049  RH  083%=      5-min Rain = 0
KSP2 100259Z 21007KT 08/05 A301 RMK A01 T00770050  RH  083%=      5-min Rain = 0
KSP2 100300Z 21007KT 08/05 A301 RMK A01 T00770050  RH  083%=      5-min Rain = 0
KSP2 100301Z 21007KT 08/05 A301 RMK A01 T00770051  RH  083%=      5-min Rain = 0
KSP2 100302Z 21006KT 08/05 A301 RMK A01 T00770050  RH  083%=      5-min Rain = 0
KSP2 100303Z 21006KT 08/05 A301 RMK A01 T00770050  RH  083%=      5-min Rain = 0
KSP2 100304Z 21007KT 08/05 A301 RMK A01 T00770051  RH  084%=      5-min Rain = 0
KSP2 100305Z 21006KT 08/05 A301 RMK A01 T00770051  RH  084%=      5-min Rain = 0
KSP2 100306Z 21007KT 08/05 A301 RMK A01 T00770052  RH  084%=      5-min Rain = 0
KSP2 100307Z 21007KT 08/05 A301 RMK A01 T00770052  RH  084%=      5-min Rain = 0
KSP2 100308Z 21007KT 08/05 A301 RMK A01 T00780053  RH  084%=      5-min Rain = 0
KSP2 100309Z 21007KT 08/05 A301 RMK A01 T00770053  RH  085%=      5-min Rain = 0
KSP2 100310Z 21007KT 08/06 A301 RMK A01 T00780055  RH  085%=      5-min Rain = 0
KSP2 100311Z 20007KT 08/06 A301 RMK A01 T00790055  RH  085%=      5-min Rain = 0
KSP2 100312Z 20007KT 08/06 A301 RMK A01 T00790055  RH  085%=      5-min Rain = 0
KSP2 100313Z 21007KT 08/06 A301 RMK A01 T00800056  RH  085%=      5-min Rain = 0
KSP2 100314Z 21007KT 08/06 A301 RMK A01 T00800057  RH  085%=      5-min Rain = 0
KSP2 100315Z 20007KT 08/06 A301 RMK A01 T00810058  RH  085%=      5-min Rain = 0
KSP2 100316Z 21007KT 08/06 A301 RMK A01 T00820058  RH  085%=      5-min Rain = 0
KSP2 100317Z 20007KT 08/06 A301 RMK A01 T00820059  RH  085%=      5-min Rain = 0
KSP2 100318Z 20007KT 08/06 A301 RMK A01 T00840060  RH  085%=      5-min Rain = 0
KSP2 100319Z 20007KT 09/06 A301 RMK A01 T00850061  RH  085%=      5-min Rain = 0
KSP2 100320Z 20007KT 09/06 A301 RMK A01 T00850061  RH  085%=      5-min Rain = 0
KSP2 100321Z 20007KT 09/06 A301 RMK A01 T00860062  RH  085%=      5-min Rain = 0
KSP2 100322Z 20007KT 09/06 A301 RMK A01 T00860062  RH  085%=      5-min Rain = 0
KSP2 100323Z 20007KT 09/06 A301 RMK A01 T00860062  RH  085%=      5-min Rain = 0
KSP2 100324Z 20007KT 09/06 A301 RMK A01 T00860063  RH  085%=      5-min Rain = 0
KSP2 100325Z 20007KT 09/06 A301 RMK A01 T00870063  RH  085%=      5-min Rain = 0
KSP2 100326Z 20007KT 09/06 A301 RMK A01 T00870063  RH  085%=      5-min Rain = 0
KSP2 100327Z 21008KT 09/06 A301 RMK A01 T00870063  RH  085%=      5-min Rain = 0
KSP2 100328Z 21007KT 09/06 A301 RMK A01 T00870064  RH  085%=      5-min Rain = 0
KSP2 100329Z 21008KT 09/06 A301 RMK A01 T00870064  RH  085%=      5-min Rain = 0
KSP2 100330Z 20007KT 09/06 A301 RMK A01 T00870063  RH  085%=      5-min Rain = 0
KSP2 100331Z 20007KT 09/06 A3009 RMK A01 T00870063  RH  085%=      5-min Rain = 0
KSP2 100332Z 20008KT 09/06 A301 RMK A01 T00870063  RH  085%=      5-min Rain = 0
KSP2 100333Z 20008KT 09/06 A301 RMK A01 T00870064  RH  085%=      5-min Rain = 0
KSP2 100334Z 20008KT 09/06 A301 RMK A01 T00870064  RH  085%=      5-min Rain = 0
KSP2 100335Z 20008KT 09/06 A301 RMK A01 T00870064  RH  085%=      5-min Rain = 0
KSP2 100336Z 20008KT 09/06 A301 RMK A01 T00880064  RH  085%=      5-min Rain = 0
KSP2 100337Z 20008KT 09/07 A301 RMK A01 T00880065  RH  085%=      5-min Rain = 0
KSP2 100338Z 20007KT 09/07 A301 RMK A01 T00890065  RH  085%=      5-min Rain = 0
KSP2 100339Z 21007KT 09/07 A3009 RMK A01 T00880065  RH  085%=      5-min Rain = 0
KSP2 100340Z 21007KT 09/07 A301 RMK A01 T00880065  RH  085%=      5-min Rain = 0
KSP2 100341Z 20007KT 09/07 A3009 RMK A01 T00880065  RH  086%=      5-min Rain = 0
KSP2 100342Z 21007KT 09/07 A3009 RMK A01 T00880065  RH  086%=      5-min Rain = 0
KSP2 100343Z 21007KT 09/07 A3009 RMK A01 T00870065  RH  086%=      5-min Rain = 0
KSP2 100344Z 21007KT 09/07 A3009 RMK A01 T00870065  RH  086%=      5-min Rain = 0
KSP2 100345Z 21007KT 09/06 A3009 RMK A01 T00860064  RH  086%=      5-min Rain = 0
KSP2 100346Z 21007KT 09/07 A3009 RMK A01 T00860065  RH  086%=      5-min Rain = 0
KSP2 100347Z 21006KT 09/06 A301 RMK A01 T00860064  RH  086%=      5-min Rain = 0
KSP2 100348Z 21007KT 09/06 A301 RMK A01 T00860064  RH  087%=      5-min Rain = 0
KSP2 100349Z 21006KT 09/07 A301 RMK A01 T00860065  RH  087%=      5-min Rain = 0
KSP2 100350Z 21006KT 09/07 A301 RMK A01 T00860065  RH  087%=      5-min Rain = 0
KSP2 100351Z 21006KT 09/06 A301 RMK A01 T00850064  RH  087%=      5-min Rain = 0
KSP2 100352Z 21007KT 09/07 A301 RMK A01 T00850065  RH  087%=      5-min Rain = 0
KSP2 100353Z 21007KT 09/07 A301 RMK A01 T00850065  RH  087%=      5-min Rain = 0
KSP2 100354Z 21007KT 09/07 A301 RMK A01 T00850065  RH  087%=      5-min Rain = 0
KSP2 100355Z 21007KT 09/07 A3009 RMK A01 T00850066  RH  088%=      5-min Rain = 0
KSP2 100356Z 21008KT 09/07 A3009 RMK A01 T00860066  RH  087%=      5-min Rain = 0
KSP2 100357Z 21008KT 09/07 A3009 RMK A01 T00870067  RH  087%=      5-min Rain = 0
KSP2 100358Z 21008KT 09/07 A3009 RMK A01 T00870067  RH  087%=      5-min Rain = 0
KSP2 100359Z 21009KT 09/07 A3009 RMK A01 T00880068  RH  087%=      5-min Rain = 0
KSP2 100400Z 21008KT 09/07 A3009 RMK A01 T00890068  RH  087%=      5-min Rain = 0
KSP2 100401Z 21008KT 09/07 A3009 RMK A01 T00890068  RH  087%=      5-min Rain = 0
KSP2 100402Z 21008KT 09/07 A3009 RMK A01 T00890068  RH  087%=      5-min Rain = 0
KSP2 100403Z 21009KT 09/07 A3009 RMK A01 T00900069  RH  086%=      5-min Rain = 0
KSP2 100404Z 21008KT 09/07 A3009 RMK A01 T00910069  RH  086%=      5-min Rain = 0
KSP2 100405Z 21009KT 09/07 A3009 RMK A01 T00920070  RH  086%=      5-min Rain = 0
KSP2 100406Z 21009KT 09/07 A3009 RMK A01 T00920070  RH  086%=      5-min Rain = 0
KSP2 100407Z 21008KT 09/07 A3009 RMK A01 T00930070  RH  086%=      5-min Rain = 0
KSP2 100408Z 21008KT 09/07 A3009 RMK A01 T00940070  RH  085%=      5-min Rain = 0
KSP2 100409Z 21009KT 09/07 A3009 RMK A01 T00940071  RH  085%=      5-min Rain = 0
KSP2 100410Z 21009KT 10/07 A3009 RMK A01 T00950071  RH  085%=      5-min Rain = 0
KSP2 100411Z 21009KT 10/07 A3009 RMK A01 T00950071  RH  085%=      5-min Rain = 0
KSP2 100412Z 21009KT 10/07 A301 RMK A01 T00950071  RH  085%=      5-min Rain = 0
KSP2 100413Z 21010KT 10/07 A301 RMK A01 T00960071  RH  084%=      5-min Rain = 0
KSP2 100414Z 21009KT 10/07 A301 RMK A01 T00970071  RH  084%=      5-min Rain = 0
KSP2 100415Z 21009KT 10/07 A301 RMK A01 T00970071  RH  084%=      5-min Rain = 0
KSP2 100416Z 21009KT 10/07 A301 RMK A01 T00970071  RH  084%=      5-min Rain = 0
KSP2 100417Z 21008KT 10/07 A301 RMK A01 T00970071  RH  084%=      5-min Rain = 0
KSP2 100418Z 21009KT 10/07 A301 RMK A01 T00970071  RH  084%=      5-min Rain = 0
KSP2 100419Z 21009KT 10/07 A301 RMK A01 T00970071  RH  084%=      5-min Rain = 0
KSP2 100420Z 22008KT 10/07 A301 RMK A01 T00970071  RH  083%=      5-min Rain = 0
KSP2 100421Z 22009KT 10/07 A301 RMK A01 T00970070  RH  083%=      5-min Rain = 0
KSP2 100422Z 22008KT 10/07 A301 RMK A01 T00970070  RH  083%=      5-min Rain = 0
KSP2 100423Z 22008KT 10/07 A301 RMK A01 T00980071  RH  083%=      5-min Rain = 0
KSP2 100424Z 22008KT 10/07 A301 RMK A01 T00990070  RH  083%=      5-min Rain = 0
KSP2 100425Z 21009KT 10/07 A3009 RMK A01 T00990070  RH  082%=      5-min Rain = 0
KSP2 100426Z 21008KT 10/07 A301 RMK A01 T00990070  RH  082%=      5-min Rain = 0
KSP2 100427Z 22008KT 10/07 A301 RMK A01 T00990071  RH  082%=      5-min Rain = 0
KSP2 100428Z 22008KT 10/07 A301 RMK A01 T00990070  RH  082%=      5-min Rain = 0
KSP2 100429Z 21008KT 10/07 A301 RMK A01 T00990070  RH  082%=      5-min Rain = 0
KSP2 100430Z 22009KT 10/07 A3009 RMK A01 T01000071  RH  082%=      5-min Rain = 0
KSP2 100431Z 22008KT 10/07 A301 RMK A01 T01000071  RH  082%=      5-min Rain = 0
KSP2 100432Z 22008KT 10/07 A3009 RMK A01 T01010071  RH  082%=      5-min Rain = 0
KSP2 100433Z 22009KT 10/07 A3009 RMK A01 T01010070  RH  081%=      5-min Rain = 0
KSP2 100434Z 22009KT 10/07 A3009 RMK A01 T01010071  RH  081%=      5-min Rain = 0
KSP2 100435Z 22009KT 10/07 A3009 RMK A01 T01010071  RH  081%=      5-min Rain = 0
KSP2 100436Z 21008KT 10/07 A3009 RMK A01 T01010071  RH  081%=      5-min Rain = 0
KSP2 100437Z 22009KT 10/07 A3009 RMK A01 T01010070  RH  081%=      5-min Rain = 0
KSP2 100438Z 22008KT 10/07 A3009 RMK A01 T01010070  RH  081%=      5-min Rain = 0
KSP2 100439Z 22009KT 10/07 A3009 RMK A01 T01010070  RH  082%=      5-min Rain = 0
KSP2 100440Z 22009KT 10/07 A3009 RMK A01 T01000070  RH  082%=      5-min Rain = 0
KSP2 100441Z 22009KT 10/07 A3009 RMK A01 T01000070  RH  082%=      5-min Rain = 0
KSP2 100442Z 21008KT 10/07 A3009 RMK A01 T01000070  RH  082%=      5-min Rain = 0
KSP2 100443Z 22009KT 10/07 A3009 RMK A01 T01000070  RH  082%=      5-min Rain = 0
KSP2 100444Z 21008KT 10/07 A3009 RMK A01 T01000071  RH  082%=      5-min Rain = 0
KSP2 100445Z 22008KT 10/07 A3009 RMK A01 T01000071  RH  082%=      5-min Rain = 0
KSP2 100446Z 21008KT 10/07 A3009 RMK A01 T01000071  RH  082%=      5-min Rain = 0
KSP2 100447Z 22009KT 10/07 A3009 RMK A01 T01000071  RH  082%=      5-min Rain = 0
KSP2 100448Z 22008KT 10/07 A3009 RMK A01 T01000071  RH  082%=      5-min Rain = 0
KSP2 100449Z 22009KT 10/07 A3009 RMK A01 T00990071  RH  082%=      5-min Rain = 0
KSP2 100450Z 21008KT 10/07 A3009 RMK A01 T01000071  RH  082%=      5-min Rain = 0
KSP2 100451Z 21008KT 10/07 A3009 RMK A01 T00990071  RH  082%=      5-min Rain = 0
KSP2 100452Z 21008KT 10/07 A3009 RMK A01 T00990071  RH  082%=      5-min Rain = 0
KSP2 100453Z 21008KT 10/07 A3009 RMK A01 T00990071  RH  082%=      5-min Rain = 0
KSP2 100454Z 21008KT 10/07 A3009 RMK A01 T00990070  RH  082%=      5-min Rain = 0
KSP2 100455Z 21008KT 10/07 A3009 RMK A01 T00980069  RH  083%=      5-min Rain = 0
KSP2 100456Z 21008KT 10/07 A3009 RMK A01 T00970070  RH  083%=      5-min Rain = 0
KSP2 100457Z 21008KT 10/07 A3009 RMK A01 T00970069  RH  083%=      5-min Rain = 0
KSP2 100458Z 21008KT 10/07 A3009 RMK A01 T00960069  RH  083%=      5-min Rain = 0
KSP2 100459Z 21009KT 10/07 A3009 RMK A01 T00950068  RH  084%=      5-min Rain = 0
KSP2 100500Z 21009KT 09/07 A3009 RMK A01 T00940068  RH  084%=      5-min Rain = 0
KSP2 100501Z 21009KT 09/07 A3009 RMK A01 T00940069  RH  084%=      5-min Rain = 0
KSP2 100502Z 21009KT 09/07 A3009 RMK A01 T00940069  RH  084%=      5-min Rain = 0
KSP2 100503Z 22009KT 09/07 A3009 RMK A01 T00940069  RH  084%=      5-min Rain = 0
KSP2 100504Z 21008KT 09/07 A3009 RMK A01 T00940069  RH  084%=      5-min Rain = 0
KSP2 100505Z 22008KT 09/07 A3009 RMK A01 T00940069  RH  084%=      5-min Rain = 0
KSP2 100506Z 22009KT 09/07 A3009 RMK A01 T00940069  RH  085%=      5-min Rain = 0
KSP2 100507Z 22009KT 09/07 A3009 RMK A01 T00940069  RH  085%=      5-min Rain = 0
KSP2 100508Z 22009KT 09/07 A3009 RMK A01 T00940070  RH  085%=      5-min Rain = 0
KSP2 100509Z 22008KT 09/07 A3009 RMK A01 T00940070  RH  085%=      5-min Rain = 0
KSP2 100510Z 22009KT 10/07 A3009 RMK A01 T00950070  RH  085%=      5-min Rain = 0
KSP2 100511Z 22009KT 09/07 A3009 RMK A01 T00940070  RH  085%=      5-min Rain = 0
KSP2 100512Z 22009KT 10/07 A3009 RMK A01 T00950070  RH  085%=      5-min Rain = 0
KSP2 100513Z 21009KT 10/07 A3009 RMK A01 T00950071  RH  085%=      5-min Rain = 0
KSP2 100514Z 21009KT 10/07 A3009 RMK A01 T00950070  RH  085%=      5-min Rain = 0
KSP2 100515Z 22009KT 10/07 A3009 RMK A01 T00950070  RH  085%=      5-min Rain = 0
KSP2 100516Z 21009KT 10/07 A3009 RMK A01 T00950070  RH  085%=      5-min Rain = 0
KSP2 100517Z 21010KT 10/07 A3009 RMK A01 T00950071  RH  085%=      5-min Rain = 0
KSP2 100518Z 21010KT 10/07 A3009 RMK A01 T00960072  RH  085%=      5-min Rain = 0
KSP2 100519Z 21010KT 10/07 A3009 RMK A01 T00960071  RH  085%=      5-min Rain = 0
KSP2 100520Z 21009KT 10/07 A3009 RMK A01 T00960071  RH  085%=      5-min Rain = 0
KSP2 100521Z 21010KT 10/07 A3009 RMK A01 T00960071  RH  085%=      5-min Rain = 0
KSP2 100522Z 21010KT 10/07 A3009 RMK A01 T00950071  RH  085%=      5-min Rain = 0
KSP2 100523Z 22010KT 10/07 A3009 RMK A01 T00950072  RH  085%=      5-min Rain = 0
KSP2 100524Z 21009KT 10/07 A3009 RMK A01 T00950071  RH  085%=      5-min Rain = 0
KSP2 100525Z 21011KT 10/07 A3009 RMK A01 T00960072  RH  085%=      5-min Rain = 0
KSP2 100526Z 21010KT 10/07 A3009 RMK A01 T00950072  RH  085%=      5-min Rain = 0
KSP2 100527Z 21009KT 10/07 A3009 RMK A01 T00960072  RH  085%=      5-min Rain = 0
KSP2 100528Z 21010KT 10/07 A3009 RMK A01 T00950072  RH  085%=      5-min Rain = 0
KSP2 100529Z 21010KT 10/07 A3009 RMK A01 T00960073  RH  086%=      5-min Rain = 0
KSP2 100530Z 21010KT 10/07 A3009 RMK A01 T00970074  RH  085%=      5-min Rain = 0
KSP2 100531Z 21011KT 10/07 A3009 RMK A01 T00970073  RH  085%=      5-min Rain = 0
KSP2 100532Z 21010KT 10/07 A3009 RMK A01 T00970073  RH  085%=      5-min Rain = 0
KSP2 100533Z 22010KT 10/07 A3009 RMK A01 T00970073  RH  085%=      5-min Rain = 0
KSP2 100534Z 21010KT 10/07 A3009 RMK A01 T00980074  RH  085%=      5-min Rain = 0
KSP2 100535Z 21010KT 10/07 A3009 RMK A01 T00980074  RH  085%=      5-min Rain = 0
KSP2 100536Z 21009KT 10/07 A3009 RMK A01 T00980074  RH  085%=      5-min Rain = 0
KSP2 100537Z 21010KT 10/07 A3009 RMK A01 T00980074  RH  085%=      5-min Rain = 0
KSP2 100538Z 21010KT 10/07 A3009 RMK A01 T00980074  RH  085%=      5-min Rain = 0
KSP2 100539Z 21010KT 10/07 A3009 RMK A01 T00990074  RH  085%=      5-min Rain = 0
KSP2 100540Z 21010KT 10/07 A3009 RMK A01 T00980074  RH  085%=      5-min Rain = 0
KSP2 100541Z 21011KT 10/07 A3009 RMK A01 T00980074  RH  085%=      5-min Rain = 0
KSP2 100542Z 21010KT 10/07 A3009 RMK A01 T00980074  RH  085%=      5-min Rain = 0
KSP2 100543Z 21010KT 10/07 A3009 RMK A01 T00980074  RH  085%=      5-min Rain = 0
KSP2 100544Z 21010KT 10/07 A3009 RMK A01 T00980074  RH  085%=      5-min Rain = 0
KSP2 100545Z 21010KT 10/07 A3009 RMK A01 T00970073  RH  085%=      5-min Rain = 0
KSP2 100546Z 21010KT 10/07 A3009 RMK A01 T00970073  RH  085%=      5-min Rain = 0
KSP2 100547Z 21009KT 10/07 A3009 RMK A01 T00970074  RH  085%=      5-min Rain = 0
KSP2 100548Z 21010KT 10/07 A3009 RMK A01 T00960073  RH  085%=      5-min Rain = 0
KSP2 100549Z 21010KT 10/07 A3009 RMK A01 T00960073  RH  086%=      5-min Rain = 0
KSP2 100550Z 21009KT 10/07 A3008 RMK A01 T00960073  RH  086%=      5-min Rain = 0
KSP2 100551Z 21010KT 10/07 A3008 RMK A01 T00960073  RH  086%=      5-min Rain = 0
KSP2 100552Z 21010KT 10/07 A3008 RMK A01 T00960073  RH  086%=      5-min Rain = 0
KSP2 100553Z 22010KT 10/07 A3008 RMK A01 T00960073  RH  086%=      5-min Rain = 0
KSP2 100554Z 21010KT 10/07 A3008 RMK A01 T00960073  RH  086%=      5-min Rain = 0
KSP2 100555Z 21010KT 10/07 A3008 RMK A01 T00960074  RH  086%=      5-min Rain = 0
KSP2 100556Z 21009KT 10/07 A3008 RMK A01 T00960074  RH  086%=      5-min Rain = 0
KSP2 100557Z 22009KT 10/07 A3008 RMK A01 T00960073  RH  086%=      5-min Rain = 0
KSP2 100558Z 22009KT 10/07 A3008 RMK A01 T00960073  RH  086%=      5-min Rain = 0
KSP2 100559Z 21010KT 10/07 A3008 RMK A01 T00960073  RH  086%=      5-min Rain = 0

Page generated in 0.1242 seconds.